Time,TemperatureF,DewpointF,PressureIn,WindDirection,WindDirectionDegrees,WindSpeedMPH,WindSpeedGustMPH,Humidity,HourlyPrecipIn,Conditions,Clouds,dailyrainin,SoftwareType,DateUTC
2013-05-30 00:00:00,76.7,68.6,29.72,South,182,4.0,9.0,76,0.00,,,0.00,Wunderground v.1.15,2013-05-30 05:00:00,
2013-05-30 00:02:00,76.7,68.6,29.72,SSE,168,6.0,9.0,76,0.00,,,0.00,Wunderground v.1.15,2013-05-30 05:02:00,
2013-05-30 00:05:00,76.6,68.5,29.72,South,171,5.0,7.0,76,0.00,,,0.00,Wunderground v.1.15,2013-05-30 05:05:00,
2013-05-30 00:08:00,76.5,68.4,29.72,SSW,195,5.0,7.0,76,0.00,,,0.00,Wunderground v.1.15,2013-05-30 05:08:00,
2013-05-30 00:09:00,76.5,68.4,29.72,South,179,4.0,7.0,76,0.00,,,0.00,Wunderground v.1.15,2013-05-30 05:09:00,
2013-05-30 00:12:00,76.4,68.7,29.72,South,181,3.0,7.0,77,0.00,,,0.00,Wunderground v.1.15,2013-05-30 05:12:00,
2013-05-30 00:14:00,76.4,68.7,29.72,South,191,5.0,5.0,77,0.00,,,0.00,Wunderground v.1.15,2013-05-30 05:14:00,
2013-05-30 00:16:00,76.3,68.6,29.72,SSW,192,5.0,5.0,77,0.00,,,0.00,Wunderground v.1.15,2013-05-30 05:16:00,
2013-05-30 00:19:00,76.2,68.5,29.72,South,186,5.0,5.0,77,0.00,,,0.00,Wunderground v.1.15,2013-05-30 05:19:00,
2013-05-30 00:20:00,76.2,68.5,29.72,SSE,168,4.0,5.0,77,0.00,,,0.00,Wunderground v.1.15,2013-05-30 05:20:00,
2013-05-30 00:21:00,76.2,68.5,29.72,South,176,3.0,5.0,77,0.00,,,0.00,Wunderground v.1.15,2013-05-30 05:21:00,
2013-05-30 00:25:00,76.1,68.4,29.73,SSE,167,4.0,6.0,77,0.00,,,0.00,Wunderground v.1.15,2013-05-30 05:25:00,
2013-05-30 00:27:00,76.1,68.4,29.73,SSW,201,6.0,6.0,77,0.00,,,0.00,Wunderground v.1.15,2013-05-30 05:27:00,
2013-05-30 00:28:00,76.1,68.4,29.73,South,185,5.0,6.0,77,0.00,,,0.00,Wunderground v.1.15,2013-05-30 05:28:00,
2013-05-30 00:30:00,76.0,68.3,29.73,South,181,3.0,6.0,77,0.00,,,0.00,Wunderground v.1.15,2013-05-30 05:30:00,
2013-05-30 00:32:00,75.9,68.2,29.73,SSW,192,5.0,6.0,77,0.00,,,0.00,Wunderground v.1.15,2013-05-30 05:32:00,
2013-05-30 00:34:00,75.9,68.2,29.73,South,186,3.0,5.0,77,0.00,,,0.00,Wunderground v.1.15,2013-05-30 05:34:00,
2013-05-30 00:38:00,75.8,68.4,29.73,South,190,7.0,7.0,78,0.00,,,0.00,Wunderground v.1.15,2013-05-30 05:38:00,
2013-05-30 00:39:00,75.8,68.4,29.73,South,179,3.0,7.0,78,0.00,,,0.00,Wunderground v.1.15,2013-05-30 05:39:00,
2013-05-30 00:41:00,75.8,68.4,29.73,SSW,195,4.0,7.0,78,0.00,,,0.00,Wunderground v.1.15,2013-05-30 05:41:00,
2013-05-30 00:42:00,75.7,68.4,29.73,SSW,198,6.0,7.0,78,0.00,,,0.00,Wunderground v.1.15,2013-05-30 05:42:00,
2013-05-30 00:43:00,75.7,68.4,29.73,South,185,4.0,7.0,78,0.00,,,0.00,Wunderground v.1.15,2013-05-30 05:43:00,
2013-05-30 00:45:00,75.7,68.4,29.73,SSW,192,7.0,7.0,78,0.00,,,0.00,Wunderground v.1.15,2013-05-30 05:45:00,
2013-05-30 00:49:00,75.7,68.4,29.73,South,182,3.0,7.0,78,0.00,,,0.00,Wunderground v.1.15,2013-05-30 05:49:00,
2013-05-30 00:50:00,75.7,68.4,29.73,South,178,6.0,7.0,78,0.00,,,0.00,Wunderground v.1.15,2013-05-30 05:50:00,
2013-05-30 00:51:00,75.7,68.4,29.73,South,180,4.0,7.0,78,0.00,,,0.00,Wunderground v.1.15,2013-05-30 05:51:00,
2013-05-30 00:52:00,75.7,68.4,29.73,SSW,205,5.0,7.0,78,0.00,,,0.00,Wunderground v.1.15,2013-05-30 05:52:00,
2013-05-30 00:53:00,75.7,68.4,29.73,South,178,4.0,7.0,78,0.00,,,0.00,Wunderground v.1.15,2013-05-30 05:53:00,
2013-05-30 00:58:00,75.6,68.6,29.73,South,190,3.0,6.0,79,0.00,,,0.00,Wunderground v.1.15,2013-05-30 05:58:00,
2013-05-30 00:59:00,75.6,68.6,29.73,South,179,5.0,6.0,79,0.00,,,0.00,Wunderground v.1.15,2013-05-30 05:59:00,
2013-05-30 01:01:00,75.5,68.5,29.73,SSW,196,6.0,6.0,79,0.00,,,0.00,Wunderground v.1.15,2013-05-30 06:01:00,
2013-05-30 01:02:00,75.5,68.5,29.73,South,171,5.0,6.0,79,0.00,,,0.00,Wunderground v.1.15,2013-05-30 06:02:00,
2013-05-30 01:04:00,75.5,68.5,29.74,South,178,4.0,5.0,79,0.00,,,0.00,Wunderground v.1.15,2013-05-30 06:04:00,
2013-05-30 01:06:00,75.5,68.5,29.73,SSW,197,6.0,8.0,79,0.00,,,0.00,Wunderground v.1.15,2013-05-30 06:06:00,
2013-05-30 01:07:00,75.4,68.4,29.73,South,188,5.0,8.0,79,0.00,,,0.00,Wunderground v.1.15,2013-05-30 06:07:00,
2013-05-30 01:09:00,75.4,68.4,29.73,South,183,3.0,8.0,79,0.00,,,0.00,Wunderground v.1.15,2013-05-30 06:09:00,
2013-05-30 01:10:00,75.4,68.4,29.73,SE,141,5.0,8.0,79,0.00,,,0.00,Wunderground v.1.15,2013-05-30 06:10:00,
2013-05-30 01:11:00,75.4,68.4,29.73,SSW,193,6.0,8.0,79,0.00,,,0.00,Wunderground v.1.15,2013-05-30 06:11:00,
2013-05-30 01:15:00,75.4,68.4,29.73,SSW,192,5.0,5.0,79,0.00,,,0.00,Wunderground v.1.15,2013-05-30 06:15:00,
2013-05-30 01:16:00,75.4,68.4,29.73,South,190,6.0,6.0,79,0.00,,,0.00,Wunderground v.1.15,2013-05-30 06:16:00,
2013-05-30 01:18:00,75.3,68.3,29.73,South,173,3.0,6.0,79,0.00,,,0.00,Wunderground v.1.15,2013-05-30 06:18:00,
2013-05-30 01:19:00,75.3,68.7,29.73,South,181,2.0,6.0,80,0.00,,,0.00,Wunderground v.1.15,2013-05-30 06:19:00,
2013-05-30 01:23:00,75.3,68.3,29.73,SSE,155,8.0,9.0,79,0.00,,,0.00,Wunderground v.1.15,2013-05-30 06:23:00,
2013-05-30 01:24:00,75.3,68.3,29.73,SSW,194,6.0,6.0,79,0.00,,,0.00,Wunderground v.1.15,2013-05-30 06:24:00,
2013-05-30 01:25:00,75.2,68.6,29.73,South,191,5.0,6.0,80,0.00,,,0.00,Wunderground v.1.15,2013-05-30 06:25:00,
2013-05-30 01:28:00,75.2,68.6,29.73,SSW,198,7.0,7.0,80,0.00,,,0.00,Wunderground v.1.15,2013-05-30 06:28:00,
2013-05-30 01:29:00,75.2,68.6,29.73,SSE,167,5.0,7.0,80,0.00,,,0.00,Wunderground v.1.15,2013-05-30 06:29:00,
2013-05-30 01:31:00,75.2,68.6,29.73,South,188,8.0,8.0,80,0.00,,,0.00,Wunderground v.1.15,2013-05-30 06:31:00,
2013-05-30 01:32:00,75.1,68.5,29.73,SSE,167,4.0,8.0,80,0.00,,,0.00,Wunderground v.1.15,2013-05-30 06:32:00,
2013-05-30 01:33:00,75.2,68.6,29.73,South,169,4.0,8.0,80,0.00,,,0.00,Wunderground v.1.15,2013-05-30 06:33:00,
2013-05-30 01:38:00,75.1,68.5,29.73,South,184,3.0,6.0,80,0.00,,,0.00,Wunderground v.1.15,2013-05-30 06:38:00,
2013-05-30 01:39:00,75.1,68.5,29.73,SSE,165,6.0,6.0,80,0.00,,,0.00,Wunderground v.1.15,2013-05-30 06:39:00,
2013-05-30 01:40:00,75.1,68.5,29.73,SSW,194,6.0,6.0,80,0.00,,,0.00,Wunderground v.1.15,2013-05-30 06:40:00,
2013-05-30 01:43:00,75.0,68.4,29.73,SSW,203,5.0,6.0,80,0.00,,,0.00,Wunderground v.1.15,2013-05-30 06:43:00,
2013-05-30 01:45:00,75.0,68.8,29.73,South,180,4.0,5.0,81,0.00,,,0.00,Wunderground v.1.15,2013-05-30 06:45:00,
2013-05-30 01:46:00,75.0,68.8,29.73,South,190,4.0,5.0,81,0.00,,,0.00,Wunderground v.1.15,2013-05-30 06:46:00,
2013-05-30 01:49:00,74.9,68.7,29.73,SSE,165,6.0,6.0,81,0.00,,,0.00,Wunderground v.1.15,2013-05-30 06:49:00,
2013-05-30 01:51:00,74.9,68.7,29.73,SSE,164,3.0,6.0,81,0.00,,,0.00,Wunderground v.1.15,2013-05-30 06:51:00,
2013-05-30 01:52:00,74.9,68.7,29.73,South,182,4.0,6.0,81,0.00,,,0.00,Wunderground v.1.15,2013-05-30 06:52:00,
2013-05-30 01:55:00,74.8,68.6,29.73,South,191,3.0,4.0,81,0.00,,,0.00,Wunderground v.1.15,2013-05-30 06:55:00,
2013-05-30 01:56:00,74.8,68.6,29.73,South,191,5.0,5.0,81,0.00,,,0.00,Wunderground v.1.15,2013-05-30 06:56:00,
2013-05-30 01:57:00,74.8,68.6,29.73,South,190,1.0,5.0,81,0.00,,,0.00,Wunderground v.1.15,2013-05-30 06:57:00,
2013-05-30 01:58:00,74.8,68.6,29.73,South,191,5.0,5.0,81,0.00,,,0.00,Wunderground v.1.15,2013-05-30 06:58:00,
2013-05-30 02:00:00,74.8,68.9,29.73,South,190,3.0,5.0,82,0.00,,,0.00,Wunderground v.1.15,2013-05-30 07:00:00,
2013-05-30 02:02:00,74.7,68.8,29.73,South,185,2.0,5.0,82,0.00,,,0.00,Wunderground v.1.15,2013-05-30 07:02:00,
2013-05-30 02:05:00,74.7,68.8,29.73,SE,146,8.0,8.0,82,0.00,,,0.00,Wunderground v.1.15,2013-05-30 07:05:00,
2013-05-30 02:06:00,74.7,68.8,29.73,SSE,159,2.0,8.0,82,0.00,,,0.00,Wunderground v.1.15,2013-05-30 07:06:00,
2013-05-30 02:08:00,74.7,68.8,29.73,South,184,2.0,8.0,82,0.00,,,0.00,Wunderground v.1.15,2013-05-30 07:08:00,
2013-05-30 02:10:00,74.6,68.7,29.73,SSE,167,6.0,8.0,82,0.00,,,0.00,Wunderground v.1.15,2013-05-30 07:10:00,
2013-05-30 02:11:00,74.6,68.7,29.73,South,179,6.0,8.0,82,0.00,,,0.00,Wunderground v.1.15,2013-05-30 07:11:00,
2013-05-30 02:13:00,74.6,68.7,29.74,SSW,195,6.0,8.0,82,0.00,,,0.00,Wunderground v.1.15,2013-05-30 07:13:00,
2013-05-30 02:14:00,74.6,68.7,29.73,South,182,4.0,5.0,82,0.00,,,0.00,Wunderground v.1.15,2013-05-30 07:14:00,
2013-05-30 02:15:00,74.6,68.7,29.73,South,185,5.0,5.0,82,0.00,,,0.00,Wunderground v.1.15,2013-05-30 07:15:00,
2013-05-30 02:16:00,74.6,68.7,29.73,South,183,4.0,5.0,82,0.00,,,0.00,Wunderground v.1.15,2013-05-30 07:16:00,
2013-05-30 02:17:00,74.6,68.7,29.73,South,184,3.0,5.0,82,0.00,,,0.00,Wunderground v.1.15,2013-05-30 07:17:00,
2013-05-30 02:18:00,74.5,68.6,29.73,South,187,5.0,5.0,82,0.00,,,0.00,Wunderground v.1.15,2013-05-30 07:18:00,
2013-05-30 02:19:00,74.5,68.6,29.73,South,191,3.0,6.0,82,0.00,,,0.00,Wunderground v.1.15,2013-05-30 07:19:00,
2013-05-30 02:20:00,74.5,68.6,29.73,SSW,192,1.0,6.0,82,0.00,,,0.00,Wunderground v.1.15,2013-05-30 07:20:00,
2013-05-30 02:21:00,74.5,68.6,29.73,South,171,4.0,6.0,82,0.00,,,0.00,Wunderground v.1.15,2013-05-30 07:21:00,
2013-05-30 02:22:00,74.5,68.6,29.73,South,186,4.0,6.0,82,0.00,,,0.00,Wunderground v.1.15,2013-05-30 07:22:00,
2013-05-30 02:24:00,74.5,68.6,29.73,South,183,4.0,4.0,82,0.00,,,0.00,Wunderground v.1.15,2013-05-30 07:24:00,
2013-05-30 02:25:00,74.4,68.9,29.73,SSW,192,2.0,7.0,83,0.00,,,0.00,Wunderground v.1.15,2013-05-30 07:25:00,
2013-05-30 02:26:00,74.4,68.9,29.73,SSW,192,2.0,7.0,83,0.00,,,0.00,Wunderground v.1.15,2013-05-30 07:26:00,
2013-05-30 02:29:00,74.3,68.8,29.73,South,191,0.0,7.0,83,0.00,,,0.00,Wunderground v.1.15,2013-05-30 07:29:00,
2013-05-30 02:30:00,74.3,68.8,29.73,South,183,0.0,7.0,83,0.00,,,0.00,Wunderground v.1.15,2013-05-30 07:30:00,
2013-05-30 02:31:00,74.3,68.8,29.73,South,184,3.0,7.0,83,0.00,,,0.00,Wunderground v.1.15,2013-05-30 07:31:00,
2013-05-30 02:32:00,74.3,68.8,29.73,South,183,3.0,7.0,83,0.00,,,0.00,Wunderground v.1.15,2013-05-30 07:32:00,
2013-05-30 02:34:00,74.2,68.7,29.73,South,173,2.0,3.0,83,0.00,,,0.00,Wunderground v.1.15,2013-05-30 07:34:00,
2013-05-30 02:35:00,74.2,68.7,29.73,South,184,2.0,5.0,83,0.00,,,0.00,Wunderground v.1.15,2013-05-30 07:35:00,
2013-05-30 02:36:00,74.2,68.7,29.73,South,179,4.0,5.0,83,0.00,,,0.00,Wunderground v.1.15,2013-05-30 07:36:00,
2013-05-30 02:38:00,74.2,68.7,29.73,South,190,5.0,7.0,83,0.00,,,0.00,Wunderground v.1.15,2013-05-30 07:38:00,
2013-05-30 02:40:00,74.2,68.7,29.73,South,185,4.0,7.0,83,0.00,,,0.00,Wunderground v.1.15,2013-05-30 07:40:00,
2013-05-30 02:41:00,74.2,69.1,29.73,South,182,2.0,7.0,84,0.00,,,0.00,Wunderground v.1.15,2013-05-30 07:41:00,
2013-05-30 02:42:00,74.2,69.1,29.73,SSE,167,3.0,7.0,84,0.00,,,0.00,Wunderground v.1.15,2013-05-30 07:42:00,
2013-05-30 02:43:00,74.1,69.0,29.73,South,175,3.0,7.0,84,0.00,,,0.00,Wunderground v.1.15,2013-05-30 07:43:00,
2013-05-30 02:45:00,74.1,69.0,29.73,SSE,168,3.0,4.0,84,0.00,,,0.00,Wunderground v.1.15,2013-05-30 07:45:00,
2013-05-30 02:46:00,74.1,69.0,29.73,SSW,194,6.0,6.0,84,0.00,,,0.00,Wunderground v.1.15,2013-05-30 07:46:00,
2013-05-30 02:47:00,74.0,68.9,29.73,South,183,3.0,6.0,84,0.00,,,0.00,Wunderground v.1.15,2013-05-30 07:47:00,
2013-05-30 02:48:00,74.0,68.9,29.72,SSW,192,7.0,7.0,84,0.00,,,0.00,Wunderground v.1.15,2013-05-30 07:48:00,
2013-05-30 02:51:00,74.0,68.9,29.73,South,173,4.0,7.0,84,0.00,,,0.00,Wunderground v.1.15,2013-05-30 07:51:00,
2013-05-30 02:52:00,74.0,68.9,29.73,South,188,3.0,7.0,84,0.00,,,0.00,Wunderground v.1.15,2013-05-30 07:52:00,
2013-05-30 02:53:00,74.0,68.9,29.73,South,174,3.0,7.0,84,0.00,,,0.00,Wunderground v.1.15,2013-05-30 07:53:00,
2013-05-30 02:56:00,74.0,68.9,29.73,South,181,3.0,5.0,84,0.00,,,0.00,Wunderground v.1.15,2013-05-30 07:56:00,
2013-05-30 02:57:00,74.0,68.9,29.73,SSW,196,6.0,6.0,84,0.00,,,0.00,Wunderground v.1.15,2013-05-30 07:57:00,
2013-05-30 02:59:00,74.0,68.9,29.73,SSW,192,3.0,7.0,84,0.00,,,0.00,Wunderground v.1.15,2013-05-30 07:59:00,
2013-05-30 03:01:00,74.0,68.9,29.73,South,184,2.0,7.0,84,0.00,,,0.00,Wunderground v.1.15,2013-05-30 08:01:00,
2013-05-30 03:02:00,73.9,69.1,29.73,South,182,5.0,7.0,85,0.00,,,0.00,Wunderground v.1.15,2013-05-30 08:02:00,
2013-05-30 03:03:00,74.0,69.2,29.73,SSW,196,7.0,8.0,85,0.00,,,0.00,Wunderground v.1.15,2013-05-30 08:03:00,
2013-05-30 03:04:00,73.9,69.1,29.73,South,181,3.0,5.0,85,0.00,,,0.00,Wunderground v.1.15,2013-05-30 08:04:00,
2013-05-30 03:06:00,73.9,69.1,29.73,South,181,3.0,5.0,85,0.00,,,0.00,Wunderground v.1.15,2013-05-30 08:06:00,
2013-05-30 03:07:00,73.9,69.1,29.73,South,171,3.0,5.0,85,0.00,,,0.00,Wunderground v.1.15,2013-05-30 08:07:00,
2013-05-30 03:08:00,73.9,69.1,29.73,South,171,2.0,5.0,85,0.00,,,0.00,Wunderground v.1.15,2013-05-30 08:08:00,
2013-05-30 03:10:00,73.9,69.1,29.73,South,171,2.0,5.0,85,0.00,,,0.00,Wunderground v.1.15,2013-05-30 08:10:00,
2013-05-30 03:11:00,73.9,69.1,29.73,South,178,2.0,5.0,85,0.00,,,0.00,Wunderground v.1.15,2013-05-30 08:11:00,
2013-05-30 03:13:00,73.9,69.1,29.73,South,180,1.0,6.0,85,0.00,,,0.00,Wunderground v.1.15,2013-05-30 08:13:00,
2013-05-30 03:15:00,73.8,69.0,29.73,South,171,2.0,5.0,85,0.00,,,0.00,Wunderground v.1.15,2013-05-30 08:15:00,
2013-05-30 03:17:00,73.8,69.0,29.73,South,190,3.0,7.0,85,0.00,,,0.00,Wunderground v.1.15,2013-05-30 08:17:00,
2013-05-30 03:18:00,73.8,69.0,29.73,South,172,3.0,7.0,85,0.00,,,0.00,Wunderground v.1.15,2013-05-30 08:18:00,
2013-05-30 03:19:00,73.8,69.0,29.73,South,188,5.0,7.0,85,0.00,,,0.00,Wunderground v.1.15,2013-05-30 08:19:00,
2013-05-30 03:20:00,73.8,69.0,29.73,South,190,5.0,7.0,85,0.00,,,0.00,Wunderground v.1.15,2013-05-30 08:20:00,
2013-05-30 03:22:00,73.8,69.0,29.73,SSW,194,5.0,7.0,85,0.00,,,0.00,Wunderground v.1.15,2013-05-30 08:22:00,
2013-05-30 03:23:00,73.8,69.0,29.73,South,190,3.0,7.0,85,0.00,,,0.00,Wunderground v.1.15,2013-05-30 08:23:00,
2013-05-30 03:24:00,73.8,69.0,29.73,South,181,3.0,4.0,85,0.00,,,0.00,Wunderground v.1.15,2013-05-30 08:24:00,
2013-05-30 03:26:00,73.8,69.0,29.73,SSW,192,4.0,5.0,85,0.00,,,0.00,Wunderground v.1.15,2013-05-30 08:26:00,
2013-05-30 03:27:00,73.8,69.0,29.73,South,180,1.0,5.0,85,0.00,,,0.00,Wunderground v.1.15,2013-05-30 08:27:00,
2013-05-30 03:29:00,73.8,69.0,29.73,South,180,1.0,5.0,85,0.00,,,0.00,Wunderground v.1.15,2013-05-30 08:29:00,
2013-05-30 03:30:00,73.8,69.0,29.73,SSE,166,4.0,5.0,85,0.00,,,0.00,Wunderground v.1.15,2013-05-30 08:30:00,
2013-05-30 03:31:00,73.7,68.9,29.73,South,182,5.0,6.0,85,0.00,,,0.00,Wunderground v.1.15,2013-05-30 08:31:00,
2013-05-30 03:34:00,73.8,69.0,29.73,South,174,3.0,5.0,85,0.00,,,0.00,Wunderground v.1.15,2013-05-30 08:34:00,
2013-05-30 03:35:00,73.8,69.0,29.73,South,190,7.0,7.0,85,0.00,,,0.00,Wunderground v.1.15,2013-05-30 08:35:00,
2013-05-30 03:36:00,73.8,69.0,29.73,SSW,206,6.0,7.0,85,0.00,,,0.00,Wunderground v.1.15,2013-05-30 08:36:00,
2013-05-30 03:39:00,73.8,69.0,29.74,SSE,167,3.0,7.0,85,0.00,,,0.00,Wunderground v.1.15,2013-05-30 08:39:00,
2013-05-30 03:40:00,73.8,69.0,29.74,South,178,3.0,7.0,85,0.00,,,0.00,Wunderground v.1.15,2013-05-30 08:40:00,
2013-05-30 03:41:00,73.9,69.1,29.74,South,180,4.0,7.0,85,0.00,,,0.00,Wunderground v.1.15,2013-05-30 08:41:00,
2013-05-30 03:45:00,73.9,69.1,29.74,South,178,0.0,4.0,85,0.00,,,0.00,Wunderground v.1.15,2013-05-30 08:45:00,
2013-05-30 03:46:00,73.9,69.1,29.74,South,179,2.0,4.0,85,0.00,,,0.00,Wunderground v.1.15,2013-05-30 08:46:00,
2013-05-30 03:47:00,73.9,69.1,29.74,South,181,3.0,4.0,85,0.00,,,0.00,Wunderground v.1.15,2013-05-30 08:47:00,
2013-05-30 03:50:00,73.9,69.1,29.74,South,183,3.0,7.0,85,0.00,,,0.00,Wunderground v.1.15,2013-05-30 08:50:00,
2013-05-30 03:51:00,73.9,69.1,29.74,South,175,2.0,7.0,85,0.00,,,0.00,Wunderground v.1.15,2013-05-30 08:51:00,
2013-05-30 03:52:00,73.9,69.1,29.74,South,175,2.0,7.0,85,0.00,,,0.00,Wunderground v.1.15,2013-05-30 08:52:00,
2013-05-30 03:53:00,73.9,69.1,29.74,South,188,5.0,7.0,85,0.00,,,0.00,Wunderground v.1.15,2013-05-30 08:53:00,
2013-05-30 03:56:00,73.9,69.1,29.74,South,178,2.0,6.0,85,0.00,,,0.00,Wunderground v.1.15,2013-05-30 08:56:00,
2013-05-30 03:57:00,73.9,69.1,29.74,South,190,7.0,7.0,85,0.00,,,0.00,Wunderground v.1.15,2013-05-30 08:57:00,
2013-05-30 03:58:00,73.9,69.1,29.74,South,188,5.0,7.0,85,0.00,,,0.00,Wunderground v.1.15,2013-05-30 08:58:00,
2013-05-30 04:01:00,73.9,69.1,29.74,SSW,196,5.0,7.0,85,0.00,,,0.00,Wunderground v.1.15,2013-05-30 09:01:00,
2013-05-30 04:02:00,73.9,69.1,29.74,South,191,3.0,7.0,85,0.00,,,0.00,Wunderground v.1.15,2013-05-30 09:02:00,
2013-05-30 04:03:00,73.9,69.1,29.74,South,191,5.0,7.0,85,0.00,,,0.00,Wunderground v.1.15,2013-05-30 09:03:00,
2013-05-30 04:05:00,73.9,69.1,29.74,South,186,5.0,7.0,85,0.00,,,0.00,Wunderground v.1.15,2013-05-30 09:05:00,
2013-05-30 04:06:00,73.9,69.1,29.74,South,176,2.0,7.0,85,0.00,,,0.00,Wunderground v.1.15,2013-05-30 09:06:00,
2013-05-30 04:08:00,73.9,69.1,29.74,South,173,4.0,7.0,85,0.00,,,0.00,Wunderground v.1.15,2013-05-30 09:08:00,
2013-05-30 04:09:00,73.9,69.1,29.74,South,179,2.0,9.0,85,0.00,,,0.00,Wunderground v.1.15,2013-05-30 09:09:00,
2013-05-30 04:10:00,74.0,69.2,29.74,South,177,2.0,9.0,85,0.00,,,0.00,Wunderground v.1.15,2013-05-30 09:10:00,
2013-05-30 04:11:00,73.9,69.1,29.74,South,186,3.0,9.0,85,0.00,,,0.00,Wunderground v.1.15,2013-05-30 09:11:00,
2013-05-30 04:13:00,73.9,69.1,29.74,SSW,193,3.0,9.0,85,0.00,,,0.00,Wunderground v.1.15,2013-05-30 09:13:00,
2013-05-30 04:14:00,74.0,69.2,29.74,SSW,198,5.0,7.0,85,0.00,,,0.00,Wunderground v.1.15,2013-05-30 09:14:00,
2013-05-30 04:15:00,73.9,69.1,29.74,South,184,2.0,7.0,85,0.00,,,0.00,Wunderground v.1.15,2013-05-30 09:15:00,
2013-05-30 04:16:00,73.9,69.1,29.74,South,182,5.0,7.0,85,0.00,,,0.00,Wunderground v.1.15,2013-05-30 09:16:00,
2013-05-30 04:17:00,73.9,69.1,29.74,South,188,4.0,7.0,85,0.00,,,0.00,Wunderground v.1.15,2013-05-30 09:17:00,
2013-05-30 04:18:00,73.9,69.1,29.74,South,187,3.0,7.0,85,0.00,,,0.00,Wunderground v.1.15,2013-05-30 09:18:00,
2013-05-30 04:19:00,73.9,69.1,29.74,South,190,3.0,7.0,85,0.00,,,0.00,Wunderground v.1.15,2013-05-30 09:19:00,
2013-05-30 04:20:00,73.9,69.1,29.74,SSW,193,4.0,7.0,85,0.00,,,0.00,Wunderground v.1.15,2013-05-30 09:20:00,
2013-05-30 04:21:00,73.9,69.1,29.74,SSE,163,2.0,7.0,85,0.00,,,0.00,Wunderground v.1.15,2013-05-30 09:21:00,
2013-05-30 04:22:00,73.9,69.1,29.74,South,188,4.0,7.0,85,0.00,,,0.00,Wunderground v.1.15,2013-05-30 09:22:00,
2013-05-30 04:23:00,73.9,69.1,29.74,South,191,4.0,7.0,85,0.00,,,0.00,Wunderground v.1.15,2013-05-30 09:23:00,
2013-05-30 04:24:00,73.9,69.1,29.74,South,183,6.0,8.0,85,0.00,,,0.00,Wunderground v.1.15,2013-05-30 09:24:00,
2013-05-30 04:25:00,73.9,69.1,29.74,SSW,194,6.0,8.0,85,0.00,,,0.00,Wunderground v.1.15,2013-05-30 09:25:00,
2013-05-30 04:27:00,73.9,69.1,29.74,South,185,4.0,8.0,85,0.00,,,0.00,Wunderground v.1.15,2013-05-30 09:27:00,
2013-05-30 04:28:00,73.9,69.1,29.74,South,179,3.0,8.0,85,0.00,,,0.00,Wunderground v.1.15,2013-05-30 09:28:00,
2013-05-30 04:29:00,73.9,69.1,29.74,South,178,3.0,8.0,85,0.00,,,0.00,Wunderground v.1.15,2013-05-30 09:29:00,
2013-05-30 04:31:00,73.9,69.1,29.74,South,184,5.0,8.0,85,0.00,,,0.00,Wunderground v.1.15,2013-05-30 09:31:00,
2013-05-30 04:32:00,73.9,69.1,29.74,South,171,3.0,8.0,85,0.00,,,0.00,Wunderground v.1.15,2013-05-30 09:32:00,
2013-05-30 04:33:00,73.9,69.1,29.74,SSE,159,4.0,4.0,85,0.00,,,0.00,Wunderground v.1.15,2013-05-30 09:33:00,
2013-05-30 04:34:00,73.9,69.1,29.74,South,188,4.0,5.0,85,0.00,,,0.00,Wunderground v.1.15,2013-05-30 09:34:00,
2013-05-30 04:36:00,73.9,69.1,29.74,SSW,197,4.0,5.0,85,0.00,,,0.00,Wunderground v.1.15,2013-05-30 09:36:00,
2013-05-30 04:38:00,73.9,69.1,29.74,South,182,2.0,5.0,85,0.00,,,0.00,Wunderground v.1.15,2013-05-30 09:38:00,
2013-05-30 04:39:00,73.8,69.0,29.74,South,184,1.0,5.0,85,0.00,,,0.00,Wunderground v.1.15,2013-05-30 09:39:00,
2013-05-30 04:40:00,73.8,69.0,29.74,South,174,3.0,5.0,85,0.00,,,0.00,Wunderground v.1.15,2013-05-30 09:40:00,
2013-05-30 04:41:00,73.8,69.0,29.74,SSW,194,2.0,6.0,85,0.00,,,0.00,Wunderground v.1.15,2013-05-30 09:41:00,
2013-05-30 04:43:00,73.8,69.0,29.74,South,179,4.0,6.0,85,0.00,,,0.00,Wunderground v.1.15,2013-05-30 09:43:00,
2013-05-30 04:44:00,73.8,69.3,29.73,SSE,152,3.0,4.0,86,0.00,,,0.00,Wunderground v.1.15,2013-05-30 09:44:00,
2013-05-30 04:46:00,73.8,69.3,29.73,South,178,4.0,6.0,86,0.00,,,0.00,Wunderground v.1.15,2013-05-30 09:46:00,
2013-05-30 04:48:00,73.8,69.3,29.73,South,178,3.0,6.0,86,0.00,,,0.00,Wunderground v.1.15,2013-05-30 09:48:00,
2013-05-30 04:49:00,73.8,69.3,29.73,SSE,155,7.0,7.0,86,0.00,,,0.00,Wunderground v.1.15,2013-05-30 09:49:00,
2013-05-30 04:50:00,73.8,69.3,29.73,South,171,3.0,7.0,86,0.00,,,0.00,Wunderground v.1.15,2013-05-30 09:50:00,
2013-05-30 04:51:00,73.8,69.3,29.73,South,172,3.0,7.0,86,0.00,,,0.00,Wunderground v.1.15,2013-05-30 09:51:00,
2013-05-30 04:53:00,73.8,69.3,29.74,South,180,4.0,7.0,86,0.00,,,0.00,Wunderground v.1.15,2013-05-30 09:53:00,
2013-05-30 04:55:00,73.8,69.3,29.74,South,173,3.0,7.0,86,0.00,,,0.00,Wunderground v.1.15,2013-05-30 09:55:00,
2013-05-30 04:56:00,73.7,69.2,29.74,South,182,3.0,7.0,86,0.00,,,0.00,Wunderground v.1.15,2013-05-30 09:56:00,
2013-05-30 04:59:00,73.7,69.2,29.74,South,190,4.0,7.0,86,0.00,,,0.00,Wunderground v.1.15,2013-05-30 09:59:00,
2013-05-30 05:00:00,73.7,69.2,29.74,South,183,3.0,7.0,86,0.00,,,0.00,Wunderground v.1.15,2013-05-30 10:00:00,
2013-05-30 05:01:00,73.7,69.2,29.74,South,172,5.0,7.0,86,0.00,,,0.00,Wunderground v.1.15,2013-05-30 10:01:00,
2013-05-30 05:02:00,73.7,69.2,29.74,South,189,5.0,7.0,86,0.00,,,0.00,Wunderground v.1.15,2013-05-30 10:02:00,
2013-05-30 05:04:00,73.7,69.2,29.74,SSW,194,4.0,4.0,86,0.00,,,0.00,Wunderground v.1.15,2013-05-30 10:04:00,
2013-05-30 05:07:00,73.7,69.2,29.74,SSW,196,3.0,6.0,86,0.00,,,0.00,Wunderground v.1.15,2013-05-30 10:07:00,
2013-05-30 05:10:00,73.7,69.2,29.74,South,172,3.0,6.0,86,0.00,,,0.00,Wunderground v.1.15,2013-05-30 10:10:00,
2013-05-30 05:12:00,73.7,69.2,29.74,South,186,2.0,6.0,86,0.00,,,0.00,Wunderground v.1.15,2013-05-30 10:12:00,
2013-05-30 05:13:00,73.7,69.2,29.74,South,190,2.0,6.0,86,0.00,,,0.00,Wunderground v.1.15,2013-05-30 10:13:00,
2013-05-30 05:15:00,73.7,69.2,29.74,South,175,4.0,4.0,86,0.00,,,0.00,Wunderground v.1.15,2013-05-30 10:15:00,
2013-05-30 05:18:00,73.7,69.2,29.74,South,186,3.0,5.0,86,0.00,,,0.00,Wunderground v.1.15,2013-05-30 10:18:00,
2013-05-30 05:19:00,73.7,69.2,29.74,South,191,5.0,6.0,86,0.00,,,0.00,Wunderground v.1.15,2013-05-30 10:19:00,
2013-05-30 05:20:00,73.7,69.2,29.74,SSW,198,5.0,6.0,86,0.00,,,0.00,Wunderground v.1.15,2013-05-30 10:20:00,
2013-05-30 05:23:00,73.7,69.2,29.74,South,184,3.0,6.0,86,0.00,,,0.00,Wunderground v.1.15,2013-05-30 10:23:00,
2013-05-30 05:25:00,73.7,69.2,29.75,South,173,3.0,4.0,86,0.00,,,0.00,Wunderground v.1.15,2013-05-30 10:25:00,
2013-05-30 05:28:00,73.7,69.2,29.75,South,191,4.0,6.0,86,0.00,,,0.00,Wunderground v.1.15,2013-05-30 10:28:00,
2013-05-30 05:29:00,73.7,69.2,29.74,South,177,4.0,7.0,86,0.00,,,0.00,Wunderground v.1.15,2013-05-30 10:29:00,
2013-05-30 05:30:00,73.7,69.2,29.74,South,182,4.0,7.0,86,0.00,,,0.00,Wunderground v.1.15,2013-05-30 10:30:00,
2013-05-30 05:33:00,73.8,69.3,29.74,South,182,5.0,8.0,86,0.00,,,0.00,Wunderground v.1.15,2013-05-30 10:33:00,
2013-05-30 05:34:00,73.8,69.3,29.74,SSW,200,5.0,5.0,86,0.00,,,0.00,Wunderground v.1.15,2013-05-30 10:34:00,
2013-05-30 05:35:00,73.8,69.3,29.74,SSE,167,6.0,8.0,86,0.00,,,0.00,Wunderground v.1.15,2013-05-30 10:35:00,
2013-05-30 05:36:00,73.8,69.0,29.74,South,181,7.0,8.0,85,0.00,,,0.00,Wunderground v.1.15,2013-05-30 10:36:00,
2013-05-30 05:38:00,73.9,69.1,29.75,South,186,4.0,8.0,85,0.00,,,0.00,Wunderground v.1.15,2013-05-30 10:38:00,
2013-05-30 05:39:00,73.9,69.1,29.75,South,186,3.0,8.0,85,0.00,,,0.00,Wunderground v.1.15,2013-05-30 10:39:00,
2013-05-30 05:40:00,73.9,69.1,29.75,South,186,1.0,8.0,85,0.00,,,0.00,Wunderground v.1.15,2013-05-30 10:40:00,
2013-05-30 05:41:00,73.9,69.1,29.75,SSE,168,6.0,8.0,85,0.00,,,0.00,Wunderground v.1.15,2013-05-30 10:41:00,
2013-05-30 05:44:00,73.9,69.1,29.75,SSE,155,7.0,7.0,85,0.00,,,0.00,Wunderground v.1.15,2013-05-30 10:44:00,
2013-05-30 05:45:00,73.9,69.1,29.75,South,179,5.0,8.0,85,0.00,,,0.00,Wunderground v.1.15,2013-05-30 10:45:00,
2013-05-30 05:46:00,73.9,69.1,29.75,SSE,165,4.0,8.0,85,0.00,,,0.00,Wunderground v.1.15,2013-05-30 10:46:00,
2013-05-30 05:49:00,73.9,69.1,29.75,South,191,3.0,8.0,85,0.00,,,0.00,Wunderground v.1.15,2013-05-30 10:49:00,
2013-05-30 05:51:00,73.9,69.1,29.75,South,181,3.0,8.0,85,0.00,,,0.00,Wunderground v.1.15,2013-05-30 10:51:00,
2013-05-30 05:54:00,73.9,69.1,29.75,SSE,153,3.0,8.0,85,0.00,,,0.00,Wunderground v.1.15,2013-05-30 10:54:00,
2013-05-30 05:55:00,73.9,69.1,29.75,South,184,6.0,8.0,85,0.00,,,0.00,Wunderground v.1.15,2013-05-30 10:55:00,
2013-05-30 05:56:00,73.9,69.1,29.75,SSE,167,6.0,8.0,85,0.00,,,0.00,Wunderground v.1.15,2013-05-30 10:56:00,
2013-05-30 06:00:00,74.0,69.2,29.75,SSW,194,6.0,8.0,85,0.00,,,0.00,Wunderground v.1.15,2013-05-30 11:00:00,
2013-05-30 06:01:00,74.0,69.2,29.75,South,183,6.0,8.0,85,0.00,,,0.00,Wunderground v.1.15,2013-05-30 11:01:00,
2013-05-30 06:02:00,74.0,69.2,29.75,South,180,6.0,8.0,85,0.00,,,0.00,Wunderground v.1.15,2013-05-30 11:02:00,
2013-05-30 06:05:00,74.0,69.2,29.75,South,173,4.0,7.0,85,0.00,,,0.00,Wunderground v.1.15,2013-05-30 11:05:00,
2013-05-30 06:06:00,74.0,69.2,29.75,South,190,5.0,7.0,85,0.00,,,0.00,Wunderground v.1.15,2013-05-30 11:06:00,
2013-05-30 06:07:00,74.0,69.2,29.75,South,179,3.0,7.0,85,0.00,,,0.00,Wunderground v.1.15,2013-05-30 11:07:00,
2013-05-30 06:10:00,74.0,69.2,29.76,SSW,199,7.0,8.0,85,0.00,,,0.00,Wunderground v.1.15,2013-05-30 11:10:00,
2013-05-30 06:11:00,74.0,69.2,29.76,SSW,200,6.0,8.0,85,0.00,,,0.00,Wunderground v.1.15,2013-05-30 11:11:00,
2013-05-30 06:12:00,74.0,69.2,29.76,SSW,199,7.0,8.0,85,0.00,,,0.00,Wunderground v.1.15,2013-05-30 11:12:00,
2013-05-30 06:15:00,74.1,69.3,29.76,South,171,4.0,8.0,85,0.00,,,0.00,Wunderground v.1.15,2013-05-30 11:15:00,
2013-05-30 06:16:00,74.1,69.3,29.76,South,180,6.0,8.0,85,0.00,,,0.00,Wunderground v.1.15,2013-05-30 11:16:00,
2013-05-30 06:18:00,74.1,69.0,29.76,SSE,159,5.0,8.0,84,0.00,,,0.00,Wunderground v.1.15,2013-05-30 11:18:00,
2013-05-30 06:21:00,74.1,69.0,29.76,South,179,5.0,13.0,84,0.00,,,0.00,Wunderground v.1.15,2013-05-30 11:21:00,
2013-05-30 06:23:00,74.1,69.0,29.76,South,175,4.0,13.0,84,0.00,,,0.00,Wunderground v.1.15,2013-05-30 11:23:00,
2013-05-30 06:26:00,74.1,69.0,29.76,SSW,195,4.0,8.0,84,0.00,,,0.00,Wunderground v.1.15,2013-05-30 11:26:00,
2013-05-30 06:27:00,74.1,69.0,29.76,SSW,196,4.0,8.0,84,0.00,,,0.00,Wunderground v.1.15,2013-05-30 11:27:00,
2013-05-30 06:28:00,74.1,69.3,29.76,South,178,3.0,8.0,85,0.00,,,0.00,Wunderground v.1.15,2013-05-30 11:28:00,
2013-05-30 06:29:00,74.1,69.3,29.76,South,180,3.0,8.0,85,0.00,,,0.00,Wunderground v.1.15,2013-05-30 11:29:00,
2013-05-30 06:32:00,74.1,69.3,29.76,South,169,4.0,8.0,85,0.00,,,0.00,Wunderground v.1.15,2013-05-30 11:32:00,
2013-05-30 06:33:00,74.1,69.0,29.76,SSE,155,5.0,8.0,84,0.00,,,0.00,Wunderground v.1.15,2013-05-30 11:33:00,
2013-05-30 06:34:00,74.1,69.0,29.76,South,171,4.0,5.0,84,0.00,,,0.00,Wunderground v.1.15,2013-05-30 11:34:00,
2013-05-30 06:37:00,74.1,69.0,29.76,SSW,192,6.0,12.0,84,0.00,,,0.00,Wunderground v.1.15,2013-05-30 11:37:00,
2013-05-30 06:39:00,74.1,69.0,29.76,South,190,9.0,12.0,84,0.00,,,0.00,Wunderground v.1.15,2013-05-30 11:39:00,
2013-05-30 06:42:00,74.2,69.4,29.76,South,183,4.0,12.0,85,0.00,,,0.00,Wunderground v.1.15,2013-05-30 11:42:00,
2013-05-30 06:43:00,74.1,69.3,29.76,South,172,5.0,12.0,85,0.00,,,0.00,Wunderground v.1.15,2013-05-30 11:43:00,
2013-05-30 06:44:00,74.2,69.4,29.76,SSW,196,5.0,5.0,85,0.00,,,0.00,Wunderground v.1.15,2013-05-30 11:44:00,
2013-05-30 06:45:00,74.2,69.4,29.76,SSW,196,6.0,9.0,85,0.00,,,0.00,Wunderground v.1.15,2013-05-30 11:45:00,
2013-05-30 06:48:00,74.2,69.4,29.76,South,182,2.0,9.0,85,0.00,,,0.00,Wunderground v.1.15,2013-05-30 11:48:00,
2013-05-30 06:49:00,74.2,69.4,29.76,SSW,196,6.0,9.0,85,0.00,,,0.00,Wunderground v.1.15,2013-05-30 11:49:00,
2013-05-30 06:50:00,74.1,69.3,29.76,South,175,3.0,11.0,85,0.00,,,0.00,Wunderground v.1.15,2013-05-30 11:50:00,
2013-05-30 06:54:00,74.1,69.3,29.76,SSW,194,7.0,7.0,85,0.00,,,0.00,Wunderground v.1.15,2013-05-30 11:54:00,
2013-05-30 06:55:00,74.1,69.3,29.76,South,187,5.0,8.0,85,0.00,,,0.00,Wunderground v.1.15,2013-05-30 11:55:00,
2013-05-30 06:56:00,74.1,69.3,29.76,South,187,4.0,8.0,85,0.00,,,0.00,Wunderground v.1.15,2013-05-30 11:56:00,
2013-05-30 06:59:00,74.1,69.3,29.76,South,183,6.0,10.0,85,0.00,,,0.00,Wunderground v.1.15,2013-05-30 11:59:00,
2013-05-30 07:00:00,74.1,69.3,29.76,SSW,192,7.0,10.0,85,0.00,,,0.00,Wunderground v.1.15,2013-05-30 12:00:00,
2013-05-30 07:01:00,74.1,69.3,29.76,SSE,156,6.0,15.0,85,0.00,,,0.00,Wunderground v.1.15,2013-05-30 12:01:00,
2013-05-30 07:04:00,74.1,69.3,29.76,South,186,7.0,11.0,85,0.00,,,0.00,Wunderground v.1.15,2013-05-30 12:04:00,
2013-05-30 07:05:00,74.1,69.3,29.76,SSW,197,10.0,11.0,85,0.00,,,0.00,Wunderground v.1.15,2013-05-30 12:05:00,
2013-05-30 07:06:00,74.1,69.6,29.76,SSE,167,7.0,11.0,86,0.00,,,0.00,Wunderground v.1.15,2013-05-30 12:06:00,
2013-05-30 07:10:00,74.0,69.5,29.76,SSW,192,5.0,11.0,86,0.00,,,0.00,Wunderground v.1.15,2013-05-30 12:10:00,
2013-05-30 07:11:00,74.0,69.5,29.76,SSE,167,7.0,11.0,86,0.00,,,0.00,Wunderground v.1.15,2013-05-30 12:11:00,
2013-05-30 07:12:00,73.9,69.4,29.76,South,189,8.0,11.0,86,0.00,,,0.00,Wunderground v.1.15,2013-05-30 12:12:00,
2013-05-30 07:15:00,73.9,69.4,29.76,South,184,6.0,9.0,86,0.00,,,0.00,Wunderground v.1.15,2013-05-30 12:15:00,
2013-05-30 07:16:00,73.9,69.4,29.76,South,190,5.0,9.0,86,0.00,,,0.00,Wunderground v.1.15,2013-05-30 12:16:00,
2013-05-30 07:17:00,73.8,69.7,29.76,SSE,163,4.0,9.0,87,0.00,,,0.00,Wunderground v.1.15,2013-05-30 12:17:00,
2013-05-30 07:20:00,73.8,69.7,29.76,South,173,6.0,9.0,87,0.00,,,0.00,Wunderground v.1.15,2013-05-30 12:20:00,
2013-05-30 07:21:00,73.8,69.7,29.76,South,191,7.0,11.0,87,0.00,,,0.00,Wunderground v.1.15,2013-05-30 12:21:00,
2013-05-30 07:22:00,73.8,69.7,29.76,SSE,163,5.0,11.0,87,0.00,,,0.00,Wunderground v.1.15,2013-05-30 12:22:00,
2013-05-30 07:26:00,73.7,69.6,29.77,South,175,3.0,7.0,87,0.00,,,0.00,Wunderground v.1.15,2013-05-30 12:26:00,
2013-05-30 07:27:00,73.7,69.6,29.77,South,188,7.0,9.0,87,0.00,,,0.00,Wunderground v.1.15,2013-05-30 12:27:00,
2013-05-30 07:28:00,73.7,69.6,29.77,South,184,7.0,9.0,87,0.00,,,0.00,Wunderground v.1.15,2013-05-30 12:28:00,
2013-05-30 07:31:00,73.6,69.8,29.77,SSW,202,7.0,10.0,88,0.00,,,0.00,Wunderground v.1.15,2013-05-30 12:31:00,
2013-05-30 07:32:00,73.6,69.8,29.77,South,191,7.0,12.0,88,0.00,,,0.00,Wunderground v.1.15,2013-05-30 12:32:00,
2013-05-30 07:33:00,73.6,69.8,29.77,SSW,208,6.0,12.0,88,0.00,,,0.00,Wunderground v.1.15,2013-05-30 12:33:00,
2013-05-30 07:36:00,73.6,69.8,29.77,South,188,6.0,11.0,88,0.00,,,0.00,Wunderground v.1.15,2013-05-30 12:36:00,
2013-05-30 07:37:00,73.6,69.8,29.77,SSW,195,5.0,11.0,88,0.00,,,0.00,Wunderground v.1.15,2013-05-30 12:37:00,
2013-05-30 07:38:00,73.6,69.8,29.76,SSE,158,5.0,11.0,88,0.00,,,0.00,Wunderground v.1.15,2013-05-30 12:38:00,
2013-05-30 07:41:00,73.7,69.9,29.77,South,172,5.0,11.0,88,0.00,,,0.00,Wunderground v.1.15,2013-05-30 12:41:00,
2013-05-30 07:42:00,73.7,69.9,29.76,SSW,195,6.0,11.0,88,0.00,,,0.00,Wunderground v.1.15,2013-05-30 12:42:00,
2013-05-30 07:43:00,73.7,69.9,29.77,SSE,167,9.0,11.0,88,0.00,,,0.00,Wunderground v.1.15,2013-05-30 12:43:00,
2013-05-30 07:44:00,73.7,69.9,29.77,SSW,197,5.0,7.0,88,0.00,,,0.00,Wunderground v.1.15,2013-05-30 12:44:00,
2013-05-30 07:46:00,73.8,70.0,29.77,SSW,192,9.0,11.0,88,0.00,,,0.00,Wunderground v.1.15,2013-05-30 12:46:00,
2013-05-30 07:48:00,73.9,70.1,29.77,SSW,195,5.0,11.0,88,0.00,,,0.00,Wunderground v.1.15,2013-05-30 12:48:00,
2013-05-30 07:49:00,73.9,70.1,29.77,South,186,4.0,11.0,88,0.00,,,0.00,Wunderground v.1.15,2013-05-30 12:49:00,
2013-05-30 07:52:00,74.0,70.2,29.77,SSE,168,7.0,11.0,88,0.00,,,0.00,Wunderground v.1.15,2013-05-30 12:52:00,
2013-05-30 07:53:00,74.1,70.3,29.77,South,190,7.0,11.0,88,0.00,,,0.00,Wunderground v.1.15,2013-05-30 12:53:00,
2013-05-30 07:54:00,74.1,70.3,29.77,South,169,6.0,8.0,88,0.00,,,0.00,Wunderground v.1.15,2013-05-30 12:54:00,
2013-05-30 07:58:00,74.2,70.4,29.77,South,184,6.0,10.0,88,0.00,,,0.00,Wunderground v.1.15,2013-05-30 12:58:00,
2013-05-30 07:59:00,74.2,70.4,29.77,SSE,164,7.0,11.0,88,0.00,,,0.00,Wunderground v.1.15,2013-05-30 12:59:00,
2013-05-30 08:00:00,74.2,70.1,29.77,South,191,9.0,11.0,87,0.00,,,0.00,Wunderground v.1.15,2013-05-30 13:00:00,
2013-05-30 08:04:00,74.2,70.4,29.77,South,186,3.0,7.0,88,0.00,,,0.00,Wunderground v.1.15,2013-05-30 13:04:00,
2013-05-30 08:05:00,74.3,70.5,29.77,South,171,6.0,8.0,88,0.00,,,0.00,Wunderground v.1.15,2013-05-30 13:05:00,
2013-05-30 08:06:00,74.3,70.5,29.77,SSW,193,8.0,8.0,88,0.00,,,0.00,Wunderground v.1.15,2013-05-30 13:06:00,
2013-05-30 08:09:00,74.4,70.6,29.77,SSE,164,4.0,8.0,88,0.00,,,0.00,Wunderground v.1.15,2013-05-30 13:09:00,
2013-05-30 08:10:00,74.4,70.6,29.77,SSW,192,7.0,8.0,88,0.00,,,0.00,Wunderground v.1.15,2013-05-30 13:10:00,
2013-05-30 08:11:00,74.4,70.3,29.77,South,187,10.0,10.0,87,0.00,,,0.00,Wunderground v.1.15,2013-05-30 13:11:00,
2013-05-30 08:14:00,74.4,70.3,29.77,SSW,196,5.0,10.0,87,0.00,,,0.00,Wunderground v.1.15,2013-05-30 13:14:00,
2013-05-30 08:15:00,74.4,70.3,29.77,South,183,5.0,10.0,87,0.00,,,0.00,Wunderground v.1.15,2013-05-30 13:15:00,
2013-05-30 08:16:00,74.4,70.3,29.77,SSW,196,7.0,10.0,87,0.00,,,0.00,Wunderground v.1.15,2013-05-30 13:16:00,
2013-05-30 08:20:00,74.4,70.3,29.78,South,191,7.0,12.0,87,0.00,,,0.00,Wunderground v.1.15,2013-05-30 13:20:00,
2013-05-30 08:21:00,74.4,70.3,29.78,SSE,167,6.0,12.0,87,0.00,,,0.00,Wunderground v.1.15,2013-05-30 13:21:00,
2013-05-30 08:22:00,74.5,70.4,29.77,SSW,198,11.0,12.0,87,0.00,,,0.00,Wunderground v.1.15,2013-05-30 13:22:00,
2013-05-30 08:25:00,74.4,70.3,29.78,South,191,7.0,9.0,87,0.00,,,0.00,Wunderground v.1.15,2013-05-30 13:25:00,
2013-05-30 08:26:00,74.5,70.4,29.78,SSW,194,6.0,9.0,87,0.00,,,0.00,Wunderground v.1.15,2013-05-30 13:26:00,
2013-05-30 08:27:00,74.4,70.3,29.78,South,169,5.0,9.0,87,0.00,,,0.00,Wunderground v.1.15,2013-05-30 13:27:00,
2013-05-30 08:30:00,74.4,70.3,29.78,SE,146,2.0,11.0,87,0.00,,,0.00,Wunderground v.1.15,2013-05-30 13:30:00,
2013-05-30 08:31:00,74.4,70.3,29.78,South,174,4.0,11.0,87,0.00,,,0.00,Wunderground v.1.15,2013-05-30 13:31:00,
2013-05-30 08:32:00,74.4,70.3,29.78,South,172,8.0,11.0,87,0.00,,,0.00,Wunderground v.1.15,2013-05-30 13:32:00,
2013-05-30 08:36:00,74.4,70.3,29.78,South,175,7.0,9.0,87,0.00,,,0.00,Wunderground v.1.15,2013-05-30 13:36:00,
2013-05-30 08:37:00,74.4,70.3,29.78,SSW,199,7.0,9.0,87,0.00,,,0.00,Wunderground v.1.15,2013-05-30 13:37:00,
2013-05-30 08:39:00,74.3,70.2,29.78,South,169,12.0,15.0,87,0.00,,,0.00,Wunderground v.1.15,2013-05-30 13:39:00,
2013-05-30 08:42:00,74.3,70.2,29.78,SSW,206,7.0,15.0,87,0.00,,,0.00,Wunderground v.1.15,2013-05-30 13:42:00,
2013-05-30 08:43:00,74.3,70.2,29.78,SSW,192,7.0,15.0,87,0.00,,,0.00,Wunderground v.1.15,2013-05-30 13:43:00,
2013-05-30 08:44:00,74.3,70.5,29.78,South,175,2.0,7.0,88,0.00,,,0.00,Wunderground v.1.15,2013-05-30 13:44:00,
2013-05-30 08:47:00,74.2,70.4,29.78,SSE,164,6.0,8.0,88,0.00,,,0.00,Wunderground v.1.15,2013-05-30 13:47:00,
2013-05-30 08:48:00,74.2,70.4,29.78,South,180,4.0,8.0,88,0.00,,,0.00,Wunderground v.1.15,2013-05-30 13:48:00,
2013-05-30 08:49:00,74.2,70.4,29.78,South,170,5.0,8.0,88,0.00,,,0.00,Wunderground v.1.15,2013-05-30 13:49:00,
2013-05-30 08:52:00,74.2,70.1,29.78,South,169,6.0,12.0,87,0.00,,,0.00,Wunderground v.1.15,2013-05-30 13:52:00,
2013-05-30 08:53:00,74.2,70.1,29.78,SSE,167,7.0,12.0,87,0.00,,,0.00,Wunderground v.1.15,2013-05-30 13:53:00,
2013-05-30 08:54:00,74.2,70.1,29.78,SSE,161,6.0,6.0,87,0.00,,,0.00,Wunderground v.1.15,2013-05-30 13:54:00,
2013-05-30 08:58:00,74.2,70.4,29.78,South,184,11.0,11.0,88,0.00,,,0.00,Wunderground v.1.15,2013-05-30 13:58:00,
2013-05-30 08:59:00,74.2,70.1,29.78,South,184,8.0,11.0,87,0.00,,,0.00,Wunderground v.1.15,2013-05-30 13:59:00,
2013-05-30 09:03:00,74.3,70.5,29.78,South,188,5.0,11.0,88,0.00,,,0.00,Wunderground v.1.15,2013-05-30 14:03:00,
2013-05-30 09:04:00,74.3,70.5,29.78,South,171,6.0,7.0,88,0.00,,,0.00,Wunderground v.1.15,2013-05-30 14:04:00,
2013-05-30 09:05:00,74.4,70.6,29.78,South,182,4.0,7.0,88,0.00,,,0.00,Wunderground v.1.15,2013-05-30 14:05:00,
2013-05-30 09:08:00,74.6,70.5,29.78,South,187,6.0,9.0,87,0.00,,,0.00,Wunderground v.1.15,2013-05-30 14:08:00,
2013-05-30 09:09:00,74.7,70.6,29.78,SSW,198,6.0,9.0,87,0.00,,,0.00,Wunderground v.1.15,2013-05-30 14:09:00,
2013-05-30 09:10:00,74.7,70.6,29.78,South,176,5.0,9.0,87,0.00,,,0.00,Wunderground v.1.15,2013-05-30 14:10:00,
2013-05-30 09:13:00,74.9,70.8,29.78,South,173,6.0,9.0,87,0.00,,,0.00,Wunderground v.1.15,2013-05-30 14:13:00,
2013-05-30 09:14:00,75.0,70.9,29.78,South,178,8.0,9.0,87,0.00,,,0.00,Wunderground v.1.15,2013-05-30 14:14:00,
2013-05-30 09:15:00,75.0,70.9,29.78,SSE,163,8.0,9.0,87,0.00,,,0.00,Wunderground v.1.15,2013-05-30 14:15:00,
2013-05-30 09:18:00,75.2,70.7,29.78,SSW,198,7.0,9.0,86,0.00,,,0.00,Wunderground v.1.15,2013-05-30 14:18:00,
2013-05-30 09:20:00,75.3,70.5,29.78,South,183,9.0,12.0,85,0.00,,,0.00,Wunderground v.1.15,2013-05-30 14:20:00,
2013-05-30 09:21:00,75.4,70.6,29.78,SSE,157,9.0,12.0,85,0.00,,,0.00,Wunderground v.1.15,2013-05-30 14:21:00,
2013-05-30 09:23:00,75.4,70.9,29.78,SSE,161,9.0,9.0,86,0.00,,,0.00,Wunderground v.1.15,2013-05-30 14:23:00,
2013-05-30 09:25:00,75.5,71.0,29.78,South,169,7.0,10.0,86,0.00,,,0.00,Wunderground v.1.15,2013-05-30 14:25:00,
2013-05-30 09:26:00,75.6,70.8,29.78,South,172,7.0,10.0,85,0.00,,,0.00,Wunderground v.1.15,2013-05-30 14:26:00,
2013-05-30 09:27:00,75.6,71.1,29.78,SSE,161,10.0,10.0,86,0.00,,,0.00,Wunderground v.1.15,2013-05-30 14:27:00,
2013-05-30 09:29:00,75.7,70.9,29.78,South,187,2.0,11.0,85,0.00,,,0.00,Wunderground v.1.15,2013-05-30 14:29:00,
2013-05-30 09:30:00,75.7,70.9,29.78,South,175,5.0,11.0,85,0.00,,,0.00,Wunderground v.1.15,2013-05-30 14:30:00,
2013-05-30 09:31:00,75.8,71.0,29.78,South,185,5.0,11.0,85,0.00,,,0.00,Wunderground v.1.15,2013-05-30 14:31:00,
2013-05-30 09:32:00,75.8,71.0,29.78,SSW,200,4.0,11.0,85,0.00,,,0.00,Wunderground v.1.15,2013-05-30 14:32:00,
2013-05-30 09:35:00,76.0,71.2,29.78,South,171,4.0,8.0,85,0.00,,,0.00,Wunderground v.1.15,2013-05-30 14:35:00,
2013-05-30 09:36:00,76.0,70.8,29.78,SSE,160,7.0,10.0,84,0.00,,,0.00,Wunderground v.1.15,2013-05-30 14:36:00,
2013-05-30 09:37:00,76.0,70.8,29.78,South,191,6.0,10.0,84,0.00,,,0.00,Wunderground v.1.15,2013-05-30 14:37:00,
2013-05-30 09:41:00,76.0,70.8,29.78,South,186,7.0,17.0,84,0.00,,,0.00,Wunderground v.1.15,2013-05-30 14:41:00,
2013-05-30 09:42:00,76.0,70.8,29.78,South,182,7.0,17.0,84,0.00,,,0.00,Wunderground v.1.15,2013-05-30 14:42:00,
2013-05-30 09:46:00,76.0,70.5,29.78,SSE,157,7.0,10.0,83,0.00,,,0.00,Wunderground v.1.15,2013-05-30 14:46:00,
2013-05-30 09:47:00,76.0,70.5,29.78,South,178,5.0,10.0,83,0.00,,,0.00,Wunderground v.1.15,2013-05-30 14:47:00,
2013-05-30 09:48:00,76.0,70.8,29.78,SSW,207,7.0,10.0,84,0.00,,,0.00,Wunderground v.1.15,2013-05-30 14:48:00,
2013-05-30 09:52:00,76.0,70.5,29.78,South,190,8.0,10.0,83,0.00,,,0.00,Wunderground v.1.15,2013-05-30 14:52:00,
2013-05-30 09:53:00,75.9,70.4,29.78,South,190,6.0,10.0,83,0.00,,,0.00,Wunderground v.1.15,2013-05-30 14:53:00,
2013-05-30 09:58:00,75.9,70.4,29.78,South,186,7.0,16.0,83,0.00,,,0.00,Wunderground v.1.15,2013-05-30 14:58:00,
2013-05-30 10:03:00,75.9,70.4,29.78,SSE,158,8.0,16.0,83,0.00,,,0.00,Wunderground v.1.15,2013-05-30 15:03:00,
2013-05-30 10:04:00,76.0,70.5,29.78,South,171,4.0,8.0,83,0.00,,,0.00,Wunderground v.1.15,2013-05-30 15:04:00,
2013-05-30 10:08:00,76.0,70.5,29.78,SSW,201,9.0,16.0,83,0.00,,,0.00,Wunderground v.1.15,2013-05-30 15:08:00,
2013-05-30 10:09:00,76.0,70.5,29.78,South,186,6.0,16.0,83,0.00,,,0.00,Wunderground v.1.15,2013-05-30 15:09:00,
2013-05-30 10:10:00,76.0,70.5,29.78,SSE,163,4.0,16.0,83,0.00,,,0.00,Wunderground v.1.15,2013-05-30 15:10:00,
2013-05-30 10:13:00,76.0,70.5,29.78,SSW,200,5.0,16.0,83,0.00,,,0.00,Wunderground v.1.15,2013-05-30 15:13:00,
2013-05-30 10:14:00,75.9,70.4,29.78,SSE,158,9.0,10.0,83,0.00,,,0.00,Wunderground v.1.15,2013-05-30 15:14:00,
2013-05-30 10:15:00,75.9,70.4,29.78,South,189,8.0,10.0,83,0.00,,,0.00,Wunderground v.1.15,2013-05-30 15:15:00,
2013-05-30 10:17:00,75.9,70.7,29.78,South,190,4.0,10.0,84,0.00,,,0.00,Wunderground v.1.15,2013-05-30 15:17:00,
2013-05-30 10:18:00,75.9,70.7,29.78,SSW,203,14.0,14.0,84,0.00,,,0.00,Wunderground v.1.15,2013-05-30 15:18:00,
2013-05-30 10:19:00,75.9,70.4,29.78,South,180,11.0,14.0,83,0.00,,,0.00,Wunderground v.1.15,2013-05-30 15:19:00,
2013-05-30 10:20:00,75.8,70.3,29.78,South,180,7.0,14.0,83,0.00,,,0.00,Wunderground v.1.15,2013-05-30 15:20:00,
2013-05-30 10:22:00,75.9,70.7,29.78,SSW,196,8.0,14.0,84,0.00,,,0.00,Wunderground v.1.15,2013-05-30 15:22:00,
2013-05-30 10:24:00,75.9,70.7,29.78,SSE,163,4.0,7.0,84,0.00,,,0.00,Wunderground v.1.15,2013-05-30 15:24:00,
2013-05-30 10:25:00,75.9,70.7,29.78,SSW,203,8.0,9.0,84,0.00,,,0.00,Wunderground v.1.15,2013-05-30 15:25:00,
2013-05-30 10:26:00,76.0,70.8,29.78,South,173,9.0,11.0,84,0.00,,,0.00,Wunderground v.1.15,2013-05-30 15:26:00,
2013-05-30 10:27:00,76.0,70.8,29.78,SSW,192,6.0,11.0,84,0.00,,,0.00,Wunderground v.1.15,2013-05-30 15:27:00,
2013-05-30 10:30:00,76.2,71.0,29.78,South,183,5.0,11.0,84,0.00,,,0.00,Wunderground v.1.15,2013-05-30 15:30:00,
2013-05-30 10:31:00,76.3,71.1,29.78,SSE,163,8.0,15.0,84,0.00,,,0.00,Wunderground v.1.15,2013-05-30 15:31:00,
2013-05-30 10:33:00,76.3,71.1,29.78,South,178,8.0,15.0,84,0.00,,,0.00,Wunderground v.1.15,2013-05-30 15:33:00,
2013-05-30 10:35:00,76.4,70.9,29.78,South,184,7.0,12.0,83,0.00,,,0.00,Wunderground v.1.15,2013-05-30 15:35:00,
2013-05-30 10:36:00,76.4,70.9,29.78,South,186,8.0,12.0,83,0.00,,,0.00,Wunderground v.1.15,2013-05-30 15:36:00,
2013-05-30 10:37:00,76.5,71.3,29.78,SSW,198,8.0,12.0,84,0.00,,,0.00,Wunderground v.1.15,2013-05-30 15:37:00,
2013-05-30 10:39:00,76.5,70.9,29.78,SSE,159,8.0,12.0,83,0.00,,,0.00,Wunderground v.1.15,2013-05-30 15:39:00,
2013-05-30 10:40:00,76.6,71.4,29.78,SSW,195,7.0,12.0,84,0.00,,,0.00,Wunderground v.1.15,2013-05-30 15:40:00,
2013-05-30 10:41:00,76.6,71.0,29.78,SSW,203,7.0,12.0,83,0.00,,,0.00,Wunderground v.1.15,2013-05-30 15:41:00,
2013-05-30 10:43:00,76.8,71.2,29.78,SSW,205,9.0,12.0,83,0.00,,,0.00,Wunderground v.1.15,2013-05-30 15:43:00,
2013-05-30 10:44:00,77.0,71.4,29.78,South,172,7.0,11.0,83,0.00,,,0.00,Wunderground v.1.15,2013-05-30 15:44:00,
2013-05-30 10:45:00,77.3,71.4,29.78,SSE,148,6.0,11.0,82,0.00,,,0.00,Wunderground v.1.15,2013-05-30 15:45:00,
2013-05-30 10:46:00,77.4,71.5,29.78,SSW,195,9.0,11.0,82,0.00,,,0.00,Wunderground v.1.15,2013-05-30 15:46:00,
2013-05-30 10:48:00,77.6,71.7,29.78,South,186,8.0,11.0,82,0.00,,,0.00,Wunderground v.1.15,2013-05-30 15:48:00,
2013-05-30 10:49:00,77.8,71.9,29.78,South,190,5.0,11.0,82,0.00,,,0.00,Wunderground v.1.15,2013-05-30 15:49:00,
2013-05-30 10:50:00,77.9,71.6,29.78,South,180,5.0,11.0,81,0.00,,,0.00,Wunderground v.1.15,2013-05-30 15:50:00,
2013-05-30 10:51:00,78.0,71.7,29.78,SSW,213,5.0,11.0,81,0.00,,,0.00,Wunderground v.1.15,2013-05-30 15:51:00,
2013-05-30 10:52:00,78.1,71.4,29.78,SSW,201,7.0,11.0,80,0.00,,,0.00,Wunderground v.1.15,2013-05-30 15:52:00,
2013-05-30 10:54:00,78.4,72.1,29.78,SSW,203,8.0,10.0,81,0.00,,,0.00,Wunderground v.1.15,2013-05-30 15:54:00,
2013-05-30 10:55:00,78.7,72.4,29.78,SSW,199,7.0,10.0,81,0.00,,,0.00,Wunderground v.1.15,2013-05-30 15:55:00,
2013-05-30 10:57:00,78.8,72.1,29.78,South,170,6.0,12.0,80,0.00,,,0.00,Wunderground v.1.15,2013-05-30 15:57:00,
2013-05-30 10:59:00,79.1,71.6,29.78,South,191,11.0,12.0,78,0.00,,,0.00,Wunderground v.1.15,2013-05-30 15:59:00,
2013-05-30 11:01:00,79.1,71.3,29.78,South,188,8.0,12.0,77,0.00,,,0.00,Wunderground v.1.15,2013-05-30 16:01:00,
2013-05-30 11:02:00,79.2,71.7,29.78,SSW,192,7.0,12.0,78,0.00,,,0.00,Wunderground v.1.15,2013-05-30 16:02:00,
2013-05-30 11:06:00,79.1,70.9,29.78,South,182,13.0,14.0,76,0.00,,,0.00,Wunderground v.1.15,2013-05-30 16:06:00,
2013-05-30 11:07:00,79.0,70.8,29.78,SSW,203,7.0,14.0,76,0.00,,,0.00,Wunderground v.1.15,2013-05-30 16:07:00,
2013-05-30 11:08:00,79.0,70.8,29.78,SSW,196,6.0,14.0,76,0.00,,,0.00,Wunderground v.1.15,2013-05-30 16:08:00,
2013-05-30 11:11:00,79.2,71.4,29.78,SSW,199,13.0,14.0,77,0.00,,,0.00,Wunderground v.1.15,2013-05-30 16:11:00,
2013-05-30 11:13:00,79.2,71.0,29.78,South,169,9.0,14.0,76,0.00,,,0.00,Wunderground v.1.15,2013-05-30 16:13:00,
2013-05-30 11:16:00,79.2,71.0,29.78,SSE,161,5.0,11.0,76,0.00,,,0.00,Wunderground v.1.15,2013-05-30 16:16:00,
2013-05-30 11:17:00,79.1,70.9,29.78,SSW,199,6.0,11.0,76,0.00,,,0.00,Wunderground v.1.15,2013-05-30 16:17:00,
2013-05-30 11:18:00,79.1,70.9,29.78,SSE,164,8.0,11.0,76,0.00,,,0.00,Wunderground v.1.15,2013-05-30 16:18:00,
2013-05-30 11:22:00,78.7,70.1,29.78,South,190,9.0,17.0,75,0.00,,,0.00,Wunderground v.1.15,2013-05-30 16:22:00,
2013-05-30 11:23:00,78.7,70.5,29.78,South,171,5.0,17.0,76,0.00,,,0.00,Wunderground v.1.15,2013-05-30 16:23:00,
2013-05-30 11:24:00,78.7,70.5,29.78,SSE,165,11.0,11.0,76,0.00,,,0.00,Wunderground v.1.15,2013-05-30 16:24:00,
2013-05-30 11:27:00,78.7,70.5,29.78,SSE,160,6.0,16.0,76,0.00,,,0.00,Wunderground v.1.15,2013-05-30 16:27:00,
2013-05-30 11:28:00,78.7,70.5,29.78,SSE,159,5.0,16.0,76,0.00,,,0.00,Wunderground v.1.15,2013-05-30 16:28:00,
2013-05-30 11:30:00,78.7,70.5,29.78,SSW,195,13.0,16.0,76,0.00,,,0.00,Wunderground v.1.15,2013-05-30 16:30:00,
2013-05-30 11:32:00,78.7,70.5,29.78,SSE,167,6.0,16.0,76,0.00,,,0.00,Wunderground v.1.15,2013-05-30 16:32:00,
2013-05-30 11:33:00,78.8,70.6,29.78,SSW,196,12.0,16.0,76,0.00,,,0.00,Wunderground v.1.15,2013-05-30 16:33:00,
2013-05-30 11:34:00,78.9,70.3,29.78,SSE,148,2.0,12.0,75,0.00,,,0.00,Wunderground v.1.15,2013-05-30 16:34:00,
2013-05-30 11:36:00,78.9,70.3,29.78,South,180,6.0,12.0,75,0.00,,,0.00,Wunderground v.1.15,2013-05-30 16:36:00,
2013-05-30 11:37:00,78.9,70.7,29.78,SSE,167,3.0,12.0,76,0.00,,,0.00,Wunderground v.1.15,2013-05-30 16:37:00,
2013-05-30 11:38:00,79.0,70.8,29.78,SSE,168,6.0,12.0,76,0.00,,,0.00,Wunderground v.1.15,2013-05-30 16:38:00,
2013-05-30 11:39:00,79.0,70.8,29.78,SSE,165,5.0,12.0,76,0.00,,,0.00,Wunderground v.1.15,2013-05-30 16:39:00,
2013-05-30 11:41:00,79.0,70.4,29.78,South,180,9.0,13.0,75,0.00,,,0.00,Wunderground v.1.15,2013-05-30 16:41:00,
2013-05-30 11:42:00,79.1,70.5,29.78,South,178,7.0,14.0,75,0.00,,,0.00,Wunderground v.1.15,2013-05-30 16:42:00,
2013-05-30 11:44:00,79.1,70.5,29.78,South,171,7.0,13.0,75,0.00,,,0.00,Wunderground v.1.15,2013-05-30 16:44:00,
2013-05-30 11:46:00,79.3,71.5,29.78,South,171,4.0,13.0,77,0.00,,,0.00,Wunderground v.1.15,2013-05-30 16:46:00,
2013-05-30 11:48:00,79.6,72.1,29.78,South,190,6.0,13.0,78,0.00,,,0.00,Wunderground v.1.15,2013-05-30 16:48:00,
2013-05-30 11:49:00,79.9,71.3,29.78,SSW,197,8.0,13.0,75,0.00,,,0.00,Wunderground v.1.15,2013-05-30 16:49:00,
2013-05-30 11:50:00,80.0,71.4,29.78,South,180,7.0,13.0,75,0.00,,,0.00,Wunderground v.1.15,2013-05-30 16:50:00,
2013-05-30 11:51:00,80.1,71.1,29.78,SSW,194,9.0,13.0,74,0.00,,,0.00,Wunderground v.1.15,2013-05-30 16:51:00,
2013-05-30 11:53:00,80.2,70.8,29.78,South,179,11.0,11.0,73,0.00,,,0.00,Wunderground v.1.15,2013-05-30 16:53:00,
2013-05-30 11:55:00,80.2,71.6,29.78,SSE,167,7.0,14.0,75,0.00,,,0.00,Wunderground v.1.15,2013-05-30 16:55:00,
2013-05-30 11:57:00,80.3,71.3,29.78,South,185,7.0,14.0,74,0.00,,,0.00,Wunderground v.1.15,2013-05-30 16:57:00,
2013-05-30 12:00:00,80.3,71.3,29.78,South,187,6.0,14.0,74,0.00,,,0.00,Wunderground v.1.15,2013-05-30 17:00:00,
2013-05-30 12:02:00,80.4,71.3,29.78,South,190,5.0,14.0,74,0.00,,,0.00,Wunderground v.1.15,2013-05-30 17:02:00,
2013-05-30 12:05:00,80.3,70.9,29.78,SSE,154,4.0,11.0,73,0.00,,,0.00,Wunderground v.1.15,2013-05-30 17:05:00,
2013-05-30 12:06:00,80.3,70.9,29.78,South,181,4.0,11.0,73,0.00,,,0.00,Wunderground v.1.15,2013-05-30 17:06:00,
2013-05-30 12:07:00,80.2,71.2,29.78,SSE,168,4.0,11.0,74,0.00,,,0.00,Wunderground v.1.15,2013-05-30 17:07:00,
2013-05-30 12:11:00,80.2,70.8,29.78,South,183,3.0,11.0,73,0.00,,,0.00,Wunderground v.1.15,2013-05-30 17:11:00,
2013-05-30 12:13:00,80.2,70.8,29.77,South,174,7.0,7.0,73,0.00,,,0.00,Wunderground v.1.15,2013-05-30 17:13:00,
2013-05-30 12:16:00,80.2,71.2,29.78,South,190,3.0,9.0,74,0.00,,,0.00,Wunderground v.1.15,2013-05-30 17:16:00,
2013-05-30 12:20:00,80.2,71.2,29.77,SSE,157,3.0,9.0,74,0.00,,,0.00,Wunderground v.1.15,2013-05-30 17:20:00,
2013-05-30 12:21:00,80.3,71.6,29.77,South,172,2.0,9.0,75,0.00,,,0.00,Wunderground v.1.15,2013-05-30 17:21:00,
2013-05-30 12:22:00,80.3,71.6,29.77,South,187,3.0,9.0,75,0.00,,,0.00,Wunderground v.1.15,2013-05-30 17:22:00,
2013-05-30 12:26:00,80.4,71.7,29.77,South,175,2.0,9.0,75,0.00,,,0.00,Wunderground v.1.15,2013-05-30 17:26:00,
2013-05-30 12:28:00,80.6,72.3,29.77,SSE,164,4.0,9.0,76,0.00,,,0.00,Wunderground v.1.15,2013-05-30 17:28:00,
2013-05-30 12:32:00,81.1,72.4,29.77,South,173,4.0,10.0,75,0.00,,,0.00,Wunderground v.1.15,2013-05-30 17:32:00,
2013-05-30 12:34:00,81.4,72.3,29.77,SSE,168,5.0,7.0,74,0.00,,,0.00,Wunderground v.1.15,2013-05-30 17:34:00,
2013-05-30 12:37:00,81.6,72.5,29.77,SSE,164,6.0,10.0,74,0.00,,,0.00,Wunderground v.1.15,2013-05-30 17:37:00,
2013-05-30 12:39:00,81.9,72.4,29.76,South,191,5.0,10.0,73,0.00,,,0.00,Wunderground v.1.15,2013-05-30 17:39:00,
2013-05-30 12:42:00,82.1,73.4,29.76,SSW,200,4.0,10.0,75,0.00,,,0.00,Wunderground v.1.15,2013-05-30 17:42:00,
2013-05-30 12:43:00,82.2,73.1,29.76,SSW,201,7.0,10.0,74,0.00,,,0.00,Wunderground v.1.15,2013-05-30 17:43:00,
2013-05-30 12:45:00,82.3,72.4,29.76,SSW,200,8.0,12.0,72,0.00,,,0.00,Wunderground v.1.15,2013-05-30 17:45:00,
2013-05-30 12:47:00,82.4,72.0,29.76,SSW,192,7.0,12.0,71,0.00,,,0.00,Wunderground v.1.15,2013-05-30 17:47:00,
2013-05-30 12:48:00,82.3,72.0,29.76,SSE,168,4.0,12.0,71,0.00,,,0.00,Wunderground v.1.15,2013-05-30 17:48:00,
2013-05-30 12:50:00,82.3,72.4,29.76,South,188,0.0,12.0,72,0.00,,,0.00,Wunderground v.1.15,2013-05-30 17:50:00,
2013-05-30 12:53:00,82.3,72.4,29.75,South,171,4.0,12.0,72,0.00,,,0.00,Wunderground v.1.15,2013-05-30 17:53:00,
2013-05-30 12:54:00,82.3,72.8,29.75,South,182,4.0,6.0,73,0.00,,,0.00,Wunderground v.1.15,2013-05-30 17:54:00,
2013-05-30 12:55:00,82.3,72.8,29.75,South,190,8.0,9.0,73,0.00,,,0.00,Wunderground v.1.15,2013-05-30 17:55:00,
2013-05-30 12:58:00,82.3,72.0,29.75,SSW,195,9.0,12.0,71,0.00,,,0.00,Wunderground v.1.15,2013-05-30 17:58:00,
2013-05-30 12:59:00,82.2,72.3,29.75,SSE,168,4.0,12.0,72,0.00,,,0.00,Wunderground v.1.15,2013-05-30 17:59:00,
2013-05-30 13:00:00,82.1,72.2,29.75,South,182,6.0,12.0,72,0.00,,,0.00,Wunderground v.1.15,2013-05-30 18:00:00,
2013-05-30 13:03:00,82.3,72.8,29.75,South,184,5.0,12.0,73,0.00,,,0.00,Wunderground v.1.15,2013-05-30 18:03:00,
2013-05-30 13:04:00,82.3,73.2,29.75,SSW,200,10.0,10.0,74,0.00,,,0.00,Wunderground v.1.15,2013-05-30 18:04:00,
2013-05-30 13:05:00,82.4,72.5,29.75,SSW,202,9.0,10.0,72,0.00,,,0.00,Wunderground v.1.15,2013-05-30 18:05:00,
2013-05-30 13:06:00,82.4,72.5,29.75,South,175,4.0,10.0,72,0.00,,,0.00,Wunderground v.1.15,2013-05-30 18:06:00,
2013-05-30 13:09:00,82.5,72.6,29.75,SSW,202,7.0,13.0,72,0.00,,,0.00,Wunderground v.1.15,2013-05-30 18:09:00,
2013-05-30 13:10:00,82.5,72.6,29.75,South,186,0.0,13.0,72,0.00,,,0.00,Wunderground v.1.15,2013-05-30 18:10:00,
2013-05-30 13:11:00,82.6,73.1,29.74,South,170,4.0,13.0,73,0.00,,,0.00,Wunderground v.1.15,2013-05-30 18:11:00,
2013-05-30 13:14:00,82.4,72.5,29.74,SSW,203,8.0,10.0,72,0.00,,,0.00,Wunderground v.1.15,2013-05-30 18:14:00,
2013-05-30 13:15:00,82.2,72.3,29.74,South,191,7.0,10.0,72,0.00,,,0.00,Wunderground v.1.15,2013-05-30 18:15:00,
2013-05-30 13:16:00,82.1,72.2,29.74,SSW,198,7.0,10.0,72,0.00,,,0.00,Wunderground v.1.15,2013-05-30 18:16:00,
2013-05-30 13:19:00,81.9,72.0,29.74,SSW,200,8.0,12.0,72,0.00,,,0.00,Wunderground v.1.15,2013-05-30 18:19:00,
2013-05-30 13:20:00,81.9,72.0,29.74,SSE,165,5.0,12.0,72,0.00,,,0.00,Wunderground v.1.15,2013-05-30 18:20:00,
2013-05-30 13:21:00,81.9,72.4,29.74,SSW,195,3.0,12.0,73,0.00,,,0.00,Wunderground v.1.15,2013-05-30 18:21:00,
2013-05-30 13:24:00,82.3,73.2,29.74,South,178,2.0,6.0,74,0.00,,,0.00,Wunderground v.1.15,2013-05-30 18:24:00,
2013-05-30 13:25:00,82.4,72.9,29.74,South,175,13.0,13.0,73,0.00,,,0.00,Wunderground v.1.15,2013-05-30 18:25:00,
2013-05-30 13:26:00,82.5,71.7,29.74,SSE,163,7.0,13.0,70,0.00,,,0.00,Wunderground v.1.15,2013-05-30 18:26:00,
2013-05-30 13:30:00,83.1,71.9,29.74,SSW,196,7.0,14.0,69,0.00,,,0.00,Wunderground v.1.15,2013-05-30 18:30:00,
2013-05-30 13:31:00,83.1,71.9,29.74,SSE,165,6.0,14.0,69,0.00,,,0.00,Wunderground v.1.15,2013-05-30 18:31:00,
2013-05-30 13:35:00,82.9,71.7,29.74,SE,146,7.0,10.0,69,0.00,,,0.00,Wunderground v.1.15,2013-05-30 18:35:00,
2013-05-30 13:36:00,82.8,71.2,29.74,South,182,9.0,10.0,68,0.00,,,0.00,Wunderground v.1.15,2013-05-30 18:36:00,
2013-05-30 13:37:00,82.8,71.2,29.74,SSE,153,9.0,10.0,68,0.00,,,0.00,Wunderground v.1.15,2013-05-30 18:37:00,
2013-05-30 13:41:00,83.0,71.3,29.73,South,191,7.0,13.0,68,0.00,,,0.00,Wunderground v.1.15,2013-05-30 18:41:00,
2013-05-30 13:42:00,83.0,70.9,29.73,South,169,6.0,16.0,67,0.00,,,0.00,Wunderground v.1.15,2013-05-30 18:42:00,
2013-05-30 13:43:00,83.1,71.4,29.73,South,191,10.0,16.0,68,0.00,,,0.00,Wunderground v.1.15,2013-05-30 18:43:00,
2013-05-30 13:46:00,83.2,72.0,29.73,South,179,6.0,14.0,69,0.00,,,0.00,Wunderground v.1.15,2013-05-30 18:46:00,
2013-05-30 13:47:00,83.3,72.1,29.73,South,173,5.0,14.0,69,0.00,,,0.00,Wunderground v.1.15,2013-05-30 18:47:00,
2013-05-30 13:48:00,83.3,72.1,29.73,South,173,6.0,14.0,69,0.00,,,0.00,Wunderground v.1.15,2013-05-30 18:48:00,
2013-05-30 13:51:00,83.2,71.5,29.72,SSW,199,12.0,14.0,68,0.00,,,0.00,Wunderground v.1.15,2013-05-30 18:51:00,
2013-05-30 13:52:00,83.2,71.5,29.72,SSW,194,9.0,14.0,68,0.00,,,0.00,Wunderground v.1.15,2013-05-30 18:52:00,
2013-05-30 13:53:00,83.2,71.5,29.72,SSW,196,10.0,14.0,68,0.00,,,0.00,Wunderground v.1.15,2013-05-30 18:53:00,
2013-05-30 13:57:00,83.4,72.2,29.72,South,189,10.0,15.0,69,0.00,,,0.00,Wunderground v.1.15,2013-05-30 18:57:00,
2013-05-30 13:58:00,83.4,72.2,29.72,SSW,201,7.0,15.0,69,0.00,,,0.00,Wunderground v.1.15,2013-05-30 18:58:00,
2013-05-30 13:59:00,83.4,72.2,29.72,SSW,194,6.0,15.0,69,0.00,,,0.00,Wunderground v.1.15,2013-05-30 18:59:00,
2013-05-30 14:02:00,83.6,71.9,29.72,South,178,4.0,15.0,68,0.00,,,0.00,Wunderground v.1.15,2013-05-30 19:02:00,
2013-05-30 14:04:00,83.6,71.9,29.72,South,184,5.0,8.0,68,0.00,,,0.00,Wunderground v.1.15,2013-05-30 19:04:00,
2013-05-30 14:07:00,83.5,71.8,29.72,South,175,7.0,13.0,68,0.00,,,0.00,Wunderground v.1.15,2013-05-30 19:07:00,
2013-05-30 14:08:00,83.5,71.8,29.72,SSW,193,6.0,13.0,68,0.00,,,0.00,Wunderground v.1.15,2013-05-30 19:08:00,
2013-05-30 14:09:00,83.4,71.7,29.72,SSW,198,9.0,13.0,68,0.00,,,0.00,Wunderground v.1.15,2013-05-30 19:09:00,
2013-05-30 14:11:00,83.4,72.6,29.72,South,186,6.0,13.0,70,0.00,,,0.00,Wunderground v.1.15,2013-05-30 19:11:00,
2013-05-30 14:13:00,83.5,72.3,29.72,South,170,7.0,13.0,69,0.00,,,0.00,Wunderground v.1.15,2013-05-30 19:13:00,
2013-05-30 14:14:00,83.5,71.4,29.72,SSW,198,7.0,9.0,67,0.00,,,0.00,Wunderground v.1.15,2013-05-30 19:14:00,
2013-05-30 14:16:00,83.4,71.7,29.71,South,184,7.0,11.0,68,0.00,,,0.00,Wunderground v.1.15,2013-05-30 19:16:00,
2013-05-30 14:19:00,83.4,71.3,29.72,South,178,10.0,14.0,67,0.00,,,0.00,Wunderground v.1.15,2013-05-30 19:19:00,
2013-05-30 14:20:00,83.2,71.5,29.72,South,191,13.0,16.0,68,0.00,,,0.00,Wunderground v.1.15,2013-05-30 19:20:00,
2013-05-30 14:21:00,83.1,71.0,29.72,SSW,199,17.0,17.0,67,0.00,,,0.00,Wunderground v.1.15,2013-05-30 19:21:00,
2013-05-30 14:24:00,82.9,71.3,29.72,SSW,198,6.0,10.0,68,0.00,,,0.00,Wunderground v.1.15,2013-05-30 19:24:00,
2013-05-30 14:25:00,83.0,71.3,29.72,South,180,6.0,10.0,68,0.00,,,0.00,Wunderground v.1.15,2013-05-30 19:25:00,
2013-05-30 14:28:00,83.3,71.6,29.72,SSW,205,8.0,14.0,68,0.00,,,0.00,Wunderground v.1.15,2013-05-30 19:28:00,
2013-05-30 14:29:00,83.4,71.3,29.71,SSW,195,13.0,14.0,67,0.00,,,0.00,Wunderground v.1.15,2013-05-30 19:29:00,
2013-05-30 14:30:00,83.4,71.3,29.71,SSE,157,9.0,14.0,67,0.00,,,0.00,Wunderground v.1.15,2013-05-30 19:30:00,
2013-05-30 14:34:00,83.5,71.8,29.71,SSW,196,3.0,9.0,68,0.00,,,0.00,Wunderground v.1.15,2013-05-30 19:34:00,
2013-05-30 14:35:00,83.6,71.9,29.71,SSE,150,10.0,10.0,68,0.00,,,0.00,Wunderground v.1.15,2013-05-30 19:35:00,
2013-05-30 14:36:00,83.6,71.9,29.71,South,187,8.0,10.0,68,0.00,,,0.00,Wunderground v.1.15,2013-05-30 19:36:00,
2013-05-30 14:37:00,83.6,71.5,29.71,South,191,5.0,10.0,67,0.00,,,0.00,Wunderground v.1.15,2013-05-30 19:37:00,
2013-05-30 14:39:00,83.6,71.9,29.71,South,187,6.0,10.0,68,0.00,,,0.00,Wunderground v.1.15,2013-05-30 19:39:00,
2013-05-30 14:40:00,83.6,71.9,29.71,South,172,7.0,10.0,68,0.00,,,0.00,Wunderground v.1.15,2013-05-30 19:40:00,
2013-05-30 14:42:00,83.6,71.9,29.71,SSW,203,11.0,14.0,68,0.00,,,0.00,Wunderground v.1.15,2013-05-30 19:42:00,
2013-05-30 14:44:00,83.4,71.3,29.71,South,186,12.0,14.0,67,0.00,,,0.00,Wunderground v.1.15,2013-05-30 19:44:00,
2013-05-30 14:45:00,83.4,71.3,29.71,SSW,195,7.0,14.0,67,0.00,,,0.00,Wunderground v.1.15,2013-05-30 19:45:00,
2013-05-30 14:47:00,83.1,71.0,29.71,SSE,161,9.0,14.0,67,0.00,,,0.00,Wunderground v.1.15,2013-05-30 19:47:00,
2013-05-30 14:50:00,82.9,70.8,29.71,South,190,8.0,16.0,67,0.00,,,0.00,Wunderground v.1.15,2013-05-30 19:50:00,
2013-05-30 14:52:00,82.8,71.6,29.71,South,173,8.0,16.0,69,0.00,,,0.00,Wunderground v.1.15,2013-05-30 19:52:00,
2013-05-30 14:53:00,82.8,71.6,29.71,SSW,198,8.0,16.0,69,0.00,,,0.00,Wunderground v.1.15,2013-05-30 19:53:00,
2013-05-30 14:55:00,82.9,71.3,29.71,South,169,8.0,12.0,68,0.00,,,0.00,Wunderground v.1.15,2013-05-30 19:55:00,
2013-05-30 14:56:00,82.9,71.3,29.71,South,189,19.0,19.0,68,0.00,,,0.00,Wunderground v.1.15,2013-05-30 19:56:00,
2013-05-30 14:57:00,83.0,71.8,29.70,SSE,167,5.0,19.0,69,0.00,,,0.00,Wunderground v.1.15,2013-05-30 19:57:00,
2013-05-30 14:58:00,83.2,72.0,29.71,SSW,202,5.0,19.0,69,0.00,,,0.00,Wunderground v.1.15,2013-05-30 19:58:00,
2013-05-30 15:00:00,83.5,71.4,29.71,South,178,5.0,19.0,67,0.00,,,0.00,Wunderground v.1.15,2013-05-30 20:00:00,
2013-05-30 15:01:00,83.6,71.9,29.70,SSE,167,4.0,19.0,68,0.00,,,0.00,Wunderground v.1.15,2013-05-30 20:01:00,
2013-05-30 15:03:00,83.8,72.1,29.70,SSW,203,8.0,19.0,68,0.00,,,0.00,Wunderground v.1.15,2013-05-30 20:03:00,
2013-05-30 15:06:00,84.1,72.0,29.70,SW,214,10.0,13.0,67,0.00,,,0.00,Wunderground v.1.15,2013-05-30 20:06:00,
2013-05-30 15:08:00,84.0,71.4,29.70,SSW,192,6.0,14.0,66,0.00,,,0.00,Wunderground v.1.15,2013-05-30 20:08:00,
2013-05-30 15:09:00,84.0,71.4,29.70,South,180,11.0,14.0,66,0.00,,,0.00,Wunderground v.1.15,2013-05-30 20:09:00,
2013-05-30 15:12:00,83.8,72.1,29.70,South,173,6.0,14.0,68,0.00,,,0.00,Wunderground v.1.15,2013-05-30 20:12:00,
2013-05-30 15:13:00,83.8,72.1,29.70,South,171,7.0,14.0,68,0.00,,,0.00,Wunderground v.1.15,2013-05-30 20:13:00,
2013-05-30 15:14:00,83.8,72.1,29.70,South,186,9.0,9.0,68,0.00,,,0.00,Wunderground v.1.15,2013-05-30 20:14:00,
2013-05-30 15:17:00,83.7,71.6,29.71,SSW,202,8.0,17.0,67,0.00,,,0.00,Wunderground v.1.15,2013-05-30 20:17:00,
2013-05-30 15:18:00,83.6,71.5,29.71,SSW,200,10.0,17.0,67,0.00,,,0.00,Wunderground v.1.15,2013-05-30 20:18:00,
2013-05-30 15:19:00,83.6,71.5,29.71,SSE,157,10.0,17.0,67,0.00,,,0.00,Wunderground v.1.15,2013-05-30 20:19:00,
2013-05-30 15:22:00,83.6,71.9,29.70,SSE,167,9.0,17.0,68,0.00,,,0.00,Wunderground v.1.15,2013-05-30 20:22:00,
2013-05-30 15:23:00,83.7,72.4,29.70,South,175,6.0,17.0,69,0.00,,,0.00,Wunderground v.1.15,2013-05-30 20:23:00,
2013-05-30 15:24:00,83.8,72.5,29.70,South,188,10.0,12.0,69,0.00,,,0.00,Wunderground v.1.15,2013-05-30 20:24:00,
2013-05-30 15:25:00,83.8,72.1,29.70,South,182,6.0,12.0,68,0.00,,,0.00,Wunderground v.1.15,2013-05-30 20:25:00,
2013-05-30 15:28:00,83.9,71.8,29.70,SSW,192,9.0,15.0,67,0.00,,,0.00,Wunderground v.1.15,2013-05-30 20:28:00,
2013-05-30 15:29:00,84.0,71.9,29.70,South,183,8.0,15.0,67,0.00,,,0.00,Wunderground v.1.15,2013-05-30 20:29:00,
2013-05-30 15:30:00,84.0,71.9,29.69,South,186,14.0,15.0,67,0.00,,,0.00,Wunderground v.1.15,2013-05-30 20:30:00,
2013-05-30 15:33:00,84.1,71.5,29.70,SSE,155,10.0,19.0,66,0.00,,,0.00,Wunderground v.1.15,2013-05-30 20:33:00,
2013-05-30 15:34:00,84.2,71.6,29.70,South,190,8.0,10.0,66,0.00,,,0.00,Wunderground v.1.15,2013-05-30 20:34:00,
2013-05-30 15:35:00,84.2,72.0,29.70,South,191,9.0,12.0,67,0.00,,,0.00,Wunderground v.1.15,2013-05-30 20:35:00,
2013-05-30 15:38:00,84.3,72.1,29.70,SSE,159,8.0,15.0,67,0.00,,,0.00,Wunderground v.1.15,2013-05-30 20:38:00,
2013-05-30 15:40:00,84.4,71.8,29.70,SSE,167,8.0,15.0,66,0.00,,,0.00,Wunderground v.1.15,2013-05-30 20:40:00,
2013-05-30 15:41:00,84.4,72.2,29.70,SSE,157,7.0,15.0,67,0.00,,,0.00,Wunderground v.1.15,2013-05-30 20:41:00,
2013-05-30 15:43:00,84.2,71.6,29.71,SSE,167,8.0,10.0,66,0.00,,,0.00,Wunderground v.1.15,2013-05-30 20:43:00,
2013-05-30 15:45:00,84.1,72.0,29.71,SSE,167,15.0,15.0,67,0.00,,,0.00,Wunderground v.1.15,2013-05-30 20:45:00,
2013-05-30 15:46:00,83.9,71.3,29.71,SSE,166,6.0,17.0,66,0.00,,,0.00,Wunderground v.1.15,2013-05-30 20:46:00,
2013-05-30 15:49:00,83.3,70.8,29.71,South,186,9.0,17.0,66,0.00,,,0.00,Wunderground v.1.15,2013-05-30 20:49:00,
2013-05-30 15:50:00,83.2,70.7,29.71,SSW,204,16.0,17.0,66,0.00,,,0.00,Wunderground v.1.15,2013-05-30 20:50:00,
2013-05-30 15:51:00,83.0,70.5,29.70,SSW,196,12.0,19.0,66,0.00,,,0.00,Wunderground v.1.15,2013-05-30 20:51:00,
2013-05-30 15:54:00,82.6,71.0,29.70,South,172,7.0,11.0,68,0.00,,,0.00,Wunderground v.1.15,2013-05-30 20:54:00,
2013-05-30 15:55:00,82.4,71.2,29.70,South,184,7.0,14.0,69,0.00,,,0.00,Wunderground v.1.15,2013-05-30 20:55:00,
2013-05-30 15:56:00,82.3,71.1,29.70,SSE,157,8.0,14.0,69,0.00,,,0.00,Wunderground v.1.15,2013-05-30 20:56:00,
2013-05-30 15:57:00,82.1,70.9,29.70,SSW,197,11.0,14.0,69,0.00,,,0.00,Wunderground v.1.15,2013-05-30 20:57:00,
2013-05-30 16:00:00,81.5,71.6,29.70,SSE,165,11.0,14.0,72,0.00,,,0.00,Wunderground v.1.15,2013-05-30 21:00:00,
2013-05-30 16:01:00,81.1,71.2,29.70,South,171,4.0,14.0,72,0.00,,,0.00,Wunderground v.1.15,2013-05-30 21:01:00,
2013-05-30 16:02:00,81.0,71.1,29.70,SSW,197,13.0,14.0,72,0.00,,,0.00,Wunderground v.1.15,2013-05-30 21:02:00,
2013-05-30 16:03:00,80.8,70.9,29.70,South,184,1.0,14.0,72,0.00,,,0.00,Wunderground v.1.15,2013-05-30 21:03:00,
2013-05-30 16:05:00,80.4,70.9,29.70,South,174,7.0,11.0,73,0.00,,,0.00,Wunderground v.1.15,2013-05-30 21:05:00,
2013-05-30 16:06:00,80.2,70.8,29.70,SSE,153,3.0,14.0,73,0.00,,,0.00,Wunderground v.1.15,2013-05-30 21:06:00,
2013-05-30 16:07:00,80.1,71.1,29.70,SSW,200,9.0,14.0,74,0.00,,,0.00,Wunderground v.1.15,2013-05-30 21:07:00,
2013-05-30 16:08:00,80.0,70.6,29.69,South,183,5.0,15.0,73,0.00,,,0.00,Wunderground v.1.15,2013-05-30 21:08:00,
2013-05-30 16:11:00,79.9,70.1,29.69,South,178,5.0,15.0,72,0.00,,,0.00,Wunderground v.1.15,2013-05-30 21:11:00,
2013-05-30 16:12:00,80.0,70.6,29.69,SSW,192,7.0,15.0,73,0.00,,,0.00,Wunderground v.1.15,2013-05-30 21:12:00,
2013-05-30 16:13:00,80.0,70.6,29.69,SSE,160,5.0,15.0,73,0.00,,,0.00,Wunderground v.1.15,2013-05-30 21:13:00,
2013-05-30 16:14:00,80.1,71.1,29.69,SSW,192,5.0,7.0,74,0.00,,,0.00,Wunderground v.1.15,2013-05-30 21:14:00,
2013-05-30 16:16:00,80.3,70.9,29.69,SSE,165,6.0,9.0,73,0.00,,,0.00,Wunderground v.1.15,2013-05-30 21:16:00,
2013-05-30 16:17:00,80.4,70.9,29.69,South,180,3.0,9.0,73,0.00,,,0.00,Wunderground v.1.15,2013-05-30 21:17:00,
2013-05-30 16:18:00,80.4,71.3,29.69,SSW,198,7.0,9.0,74,0.00,,,0.00,Wunderground v.1.15,2013-05-30 21:18:00,
2013-05-30 16:19:00,80.5,71.0,29.69,South,191,6.0,9.0,73,0.00,,,0.00,Wunderground v.1.15,2013-05-30 21:19:00,
2013-05-30 16:20:00,80.6,71.1,29.68,SSW,194,2.0,10.0,73,0.00,,,0.00,Wunderground v.1.15,2013-05-30 21:20:00,
2013-05-30 16:22:00,80.9,71.4,29.68,South,170,4.0,10.0,73,0.00,,,0.00,Wunderground v.1.15,2013-05-30 21:22:00,
2013-05-30 16:23:00,80.8,71.3,29.68,SSW,195,7.0,10.0,73,0.00,,,0.00,Wunderground v.1.15,2013-05-30 21:23:00,
2013-05-30 16:25:00,81.1,71.6,29.68,South,182,6.0,7.0,73,0.00,,,0.00,Wunderground v.1.15,2013-05-30 21:25:00,
2013-05-30 16:28:00,81.2,71.3,29.67,South,181,6.0,12.0,72,0.00,,,0.00,Wunderground v.1.15,2013-05-30 21:28:00,
2013-05-30 16:31:00,81.1,71.2,29.67,SSE,150,8.0,15.0,72,0.00,,,0.00,Wunderground v.1.15,2013-05-30 21:31:00,
2013-05-30 16:33:00,81.1,71.2,29.68,SSE,163,6.0,15.0,72,0.00,,,0.00,Wunderground v.1.15,2013-05-30 21:33:00,
2013-05-30 16:34:00,81.0,71.1,29.68,SSW,200,12.0,14.0,72,0.00,,,0.00,Wunderground v.1.15,2013-05-30 21:34:00,
2013-05-30 16:36:00,81.0,71.1,29.67,South,180,6.0,14.0,72,0.00,,,0.00,Wunderground v.1.15,2013-05-30 21:36:00,
2013-05-30 16:38:00,81.1,71.6,29.67,SSE,149,4.0,14.0,73,0.00,,,0.00,Wunderground v.1.15,2013-05-30 21:38:00,
2013-05-30 16:39:00,81.1,71.6,29.67,South,182,6.0,14.0,73,0.00,,,0.00,Wunderground v.1.15,2013-05-30 21:39:00,
2013-05-30 16:41:00,81.2,71.3,29.67,SSW,200,4.0,14.0,72,0.00,,,0.00,Wunderground v.1.15,2013-05-30 21:41:00,
2013-05-30 16:42:00,81.2,71.7,29.67,SSW,197,7.0,15.0,73,0.00,,,0.00,Wunderground v.1.15,2013-05-30 21:42:00,
2013-05-30 16:44:00,81.3,72.2,29.67,South,184,4.0,7.0,74,0.00,,,0.00,Wunderground v.1.15,2013-05-30 21:44:00,
2013-05-30 16:47:00,81.4,71.9,29.67,SSE,163,11.0,14.0,73,0.00,,,0.00,Wunderground v.1.15,2013-05-30 21:47:00,
2013-05-30 16:49:00,81.5,72.0,29.66,South,175,6.0,14.0,73,0.00,,,0.00,Wunderground v.1.15,2013-05-30 21:49:00,
2013-05-30 16:50:00,81.6,71.7,29.66,South,171,8.0,14.0,72,0.00,,,0.00,Wunderground v.1.15,2013-05-30 21:50:00,
2013-05-30 16:52:00,81.7,71.4,29.66,SSW,194,7.0,14.0,71,0.00,,,0.00,Wunderground v.1.15,2013-05-30 21:52:00,
2013-05-30 16:54:00,81.6,71.7,29.66,South,174,7.0,10.0,72,0.00,,,0.00,Wunderground v.1.15,2013-05-30 21:54:00,
2013-05-30 16:55:00,81.7,71.8,29.66,SSW,193,8.0,10.0,72,0.00,,,0.00,Wunderground v.1.15,2013-05-30 21:55:00,
2013-05-30 16:57:00,81.8,72.3,29.67,SSW,196,4.0,10.0,73,0.00,,,0.00,Wunderground v.1.15,2013-05-30 21:57:00,
2013-05-30 16:59:00,81.8,71.9,29.67,SSE,163,7.0,10.0,72,0.00,,,0.00,Wunderground v.1.15,2013-05-30 21:59:00,
2013-05-30 17:00:00,81.9,72.0,29.67,South,191,12.0,12.0,72,0.00,,,0.00,Wunderground v.1.15,2013-05-30 22:00:00,
2013-05-30 17:03:00,82.0,72.5,29.67,SSW,201,6.0,12.0,73,0.00,,,0.00,Wunderground v.1.15,2013-05-30 22:03:00,
2013-05-30 17:04:00,82.1,72.2,29.67,SSE,165,4.0,7.0,72,0.00,,,0.00,Wunderground v.1.15,2013-05-30 22:04:00,
2013-05-30 17:05:00,82.1,72.2,29.67,SSW,196,7.0,8.0,72,0.00,,,0.00,Wunderground v.1.15,2013-05-30 22:05:00,
2013-05-30 17:06:00,82.1,72.2,29.68,South,189,8.0,13.0,72,0.00,,,0.00,Wunderground v.1.15,2013-05-30 22:06:00,
2013-05-30 17:08:00,82.1,71.8,29.68,South,172,10.0,13.0,71,0.00,,,0.00,Wunderground v.1.15,2013-05-30 22:08:00,
2013-05-30 17:09:00,82.0,71.7,29.68,SSW,205,10.0,13.0,71,0.00,,,0.00,Wunderground v.1.15,2013-05-30 22:09:00,
2013-05-30 17:11:00,82.0,72.1,29.68,South,184,15.0,15.0,72,0.00,,,0.00,Wunderground v.1.15,2013-05-30 22:11:00,
2013-05-30 17:13:00,82.0,71.7,29.68,SSW,200,11.0,15.0,71,0.00,,,0.00,Wunderground v.1.15,2013-05-30 22:13:00,
2013-05-30 17:15:00,82.0,71.7,29.69,South,186,11.0,13.0,71,0.00,,,0.00,Wunderground v.1.15,2013-05-30 22:15:00,
2013-05-30 17:16:00,81.9,72.0,29.68,South,189,5.0,13.0,72,0.00,,,0.00,Wunderground v.1.15,2013-05-30 22:16:00,
2013-05-30 17:17:00,82.0,72.1,29.68,South,190,6.0,13.0,72,0.00,,,0.00,Wunderground v.1.15,2013-05-30 22:17:00,
2013-05-30 17:18:00,82.0,72.1,29.68,SSW,213,8.0,13.0,72,0.00,,,0.00,Wunderground v.1.15,2013-05-30 22:18:00,
2013-05-30 17:20:00,81.9,72.0,29.68,SSW,196,17.0,18.0,72,0.00,,,0.00,Wunderground v.1.15,2013-05-30 22:20:00,
2013-05-30 17:21:00,81.9,71.6,29.68,SSW,199,8.0,18.0,71,0.00,,,0.00,Wunderground v.1.15,2013-05-30 22:21:00,
2013-05-30 17:22:00,81.8,71.9,29.68,South,182,7.0,18.0,72,0.00,,,0.00,Wunderground v.1.15,2013-05-30 22:22:00,
2013-05-30 17:23:00,81.9,72.0,29.68,SSW,196,7.0,8.0,72,0.00,,,0.00,Wunderground v.1.15,2013-05-30 22:23:00,
2013-05-30 17:26:00,81.9,72.0,29.68,South,175,4.0,9.0,72,0.00,,,0.00,Wunderground v.1.15,2013-05-30 22:26:00,
2013-05-30 17:27:00,81.9,72.0,29.69,South,175,5.0,10.0,72,0.00,,,0.00,Wunderground v.1.15,2013-05-30 22:27:00,
2013-05-30 17:28:00,82.0,72.1,29.68,South,175,5.0,10.0,72,0.00,,,0.00,Wunderground v.1.15,2013-05-30 22:28:00,
2013-05-30 17:29:00,81.9,72.0,29.68,South,183,6.0,10.0,72,0.00,,,0.00,Wunderground v.1.15,2013-05-30 22:29:00,
2013-05-30 17:31:00,82.0,72.1,29.68,SSE,156,12.0,13.0,72,0.00,,,0.00,Wunderground v.1.15,2013-05-30 22:31:00,
2013-05-30 17:33:00,82.0,72.1,29.68,SSE,165,6.0,13.0,72,0.00,,,0.00,Wunderground v.1.15,2013-05-30 22:33:00,
2013-05-30 17:35:00,82.0,72.1,29.68,SSE,168,6.0,10.0,72,0.00,,,0.00,Wunderground v.1.15,2013-05-30 22:35:00,
2013-05-30 17:36:00,82.0,72.5,29.68,SSW,192,6.0,12.0,73,0.00,,,0.00,Wunderground v.1.15,2013-05-30 22:36:00,
2013-05-30 17:38:00,82.0,72.5,29.68,South,178,4.0,12.0,73,0.00,,,0.00,Wunderground v.1.15,2013-05-30 22:38:00,
2013-05-30 17:39:00,82.0,72.5,29.68,South,183,5.0,12.0,73,0.00,,,0.00,Wunderground v.1.15,2013-05-30 22:39:00,
2013-05-30 17:40:00,82.0,72.1,29.68,South,177,4.0,12.0,72,0.00,,,0.00,Wunderground v.1.15,2013-05-30 22:40:00,
2013-05-30 17:42:00,82.0,72.5,29.68,South,169,5.0,12.0,73,0.00,,,0.00,Wunderground v.1.15,2013-05-30 22:42:00,
2013-05-30 17:43:00,82.0,72.5,29.68,SSW,213,5.0,12.0,73,0.00,,,0.00,Wunderground v.1.15,2013-05-30 22:43:00,
2013-05-30 17:44:00,82.0,72.5,29.68,SSW,196,6.0,8.0,73,0.00,,,0.00,Wunderground v.1.15,2013-05-30 22:44:00,
2013-05-30 17:46:00,81.9,72.4,29.68,South,190,5.0,9.0,73,0.00,,,0.00,Wunderground v.1.15,2013-05-30 22:46:00,
2013-05-30 17:47:00,81.9,72.4,29.68,South,184,5.0,9.0,73,0.00,,,0.00,Wunderground v.1.15,2013-05-30 22:47:00,
2013-05-30 17:48:00,81.9,72.4,29.68,South,173,5.0,9.0,73,0.00,,,0.00,Wunderground v.1.15,2013-05-30 22:48:00,
2013-05-30 17:49:00,81.9,72.4,29.68,SSW,192,6.0,9.0,73,0.00,,,0.00,Wunderground v.1.15,2013-05-30 22:49:00,
2013-05-30 17:51:00,81.8,72.3,29.68,South,190,5.0,11.0,73,0.00,,,0.00,Wunderground v.1.15,2013-05-30 22:51:00,
2013-05-30 17:52:00,81.9,72.4,29.68,South,179,6.0,11.0,73,0.00,,,0.00,Wunderground v.1.15,2013-05-30 22:52:00,
2013-05-30 17:53:00,81.8,72.3,29.68,SSW,194,4.0,11.0,73,0.00,,,0.00,Wunderground v.1.15,2013-05-30 22:53:00,
2013-05-30 17:54:00,81.8,72.3,29.68,SSE,156,6.0,9.0,73,0.00,,,0.00,Wunderground v.1.15,2013-05-30 22:54:00,
2013-05-30 17:56:00,81.7,72.2,29.68,South,171,6.0,10.0,73,0.00,,,0.00,Wunderground v.1.15,2013-05-30 22:56:00,
2013-05-30 17:57:00,81.7,72.2,29.68,South,172,9.0,13.0,73,0.00,,,0.00,Wunderground v.1.15,2013-05-30 22:57:00,
2013-05-30 17:58:00,81.7,72.6,29.68,South,182,3.0,13.0,74,0.00,,,0.00,Wunderground v.1.15,2013-05-30 22:58:00,
2013-05-30 18:00:00,81.6,72.1,29.68,South,186,9.0,13.0,73,0.00,,,0.00,Wunderground v.1.15,2013-05-30 23:00:00,
2013-05-30 18:01:00,81.6,72.5,29.68,South,180,3.0,13.0,74,0.00,,,0.00,Wunderground v.1.15,2013-05-30 23:01:00,
2013-05-30 18:02:00,81.6,72.5,29.68,SSE,155,5.0,13.0,74,0.00,,,0.00,Wunderground v.1.15,2013-05-30 23:02:00,
2013-05-30 18:04:00,81.6,72.5,29.68,SSE,167,6.0,8.0,74,0.00,,,0.00,Wunderground v.1.15,2013-05-30 23:04:00,
2013-05-30 18:05:00,81.6,72.5,29.68,South,175,3.0,8.0,74,0.00,,,0.00,Wunderground v.1.15,2013-05-30 23:05:00,
2013-05-30 18:07:00,81.6,72.5,29.68,South,173,7.0,8.0,74,0.00,,,0.00,Wunderground v.1.15,2013-05-30 23:07:00,
2013-05-30 18:09:00,81.6,72.5,29.68,SSW,192,7.0,9.0,74,0.00,,,0.00,Wunderground v.1.15,2013-05-30 23:09:00,
2013-05-30 18:10:00,81.6,72.5,29.69,South,178,16.0,17.0,74,0.00,,,0.00,Wunderground v.1.15,2013-05-30 23:10:00,
2013-05-30 18:12:00,81.2,69.6,29.69,SSE,167,12.0,24.0,68,0.00,,,0.00,Wunderground v.1.15,2013-05-30 23:12:00,
2013-05-30 18:13:00,80.9,69.3,29.69,SSW,192,10.0,24.0,68,0.00,,,0.00,Wunderground v.1.15,2013-05-30 23:13:00,
2013-05-30 18:15:00,80.5,68.1,29.69,SSE,162,13.0,17.0,66,0.00,,,0.00,Wunderground v.1.15,2013-05-30 23:15:00,
2013-05-30 18:17:00,79.8,67.9,29.70,SSW,211,9.0,19.0,67,0.00,,,0.00,Wunderground v.1.15,2013-05-30 23:17:00,
2013-05-30 18:19:00,79.4,67.5,29.70,SSE,163,8.0,19.0,67,0.00,,,0.00,Wunderground v.1.15,2013-05-30 23:19:00,
2013-05-30 18:20:00,79.1,67.2,29.69,South,183,9.0,19.0,67,0.00,,,0.00,Wunderground v.1.15,2013-05-30 23:20:00,
2013-05-30 18:22:00,78.7,67.7,29.69,SSW,198,9.0,19.0,69,0.00,,,0.00,Wunderground v.1.15,2013-05-30 23:22:00,
2013-05-30 18:23:00,78.7,67.7,29.69,South,173,12.0,19.0,69,0.00,,,0.00,Wunderground v.1.15,2013-05-30 23:23:00,
2013-05-30 18:25:00,77.7,68.4,29.70,South,188,8.0,21.0,73,0.00,,,0.01,Wunderground v.1.15,2013-05-30 23:25:00,
2013-05-30 18:28:00,76.3,68.2,29.70,South,182,7.0,21.0,76,0.00,,,0.01,Wunderground v.1.15,2013-05-30 23:28:00,
2013-05-30 18:30:00,75.8,68.4,29.70,SSE,163,9.0,21.0,78,0.00,,,0.01,Wunderground v.1.15,2013-05-30 23:30:00,
2013-05-30 18:32:00,75.3,68.0,29.70,SSW,198,7.0,21.0,78,0.00,,,0.01,Wunderground v.1.15,2013-05-30 23:32:00,
2013-05-30 18:33:00,75.0,68.4,29.69,South,189,10.0,10.0,80,0.00,,,0.01,Wunderground v.1.15,2013-05-30 23:33:00,
2013-05-30 18:34:00,74.9,68.3,29.69,South,176,5.0,10.0,80,0.00,,,0.01,Wunderground v.1.15,2013-05-30 23:34:00,
2013-05-30 18:35:00,74.8,68.2,29.69,SSW,200,7.0,10.0,80,0.00,,,0.01,Wunderground v.1.15,2013-05-30 23:35:00,
2013-05-30 18:37:00,74.5,68.3,29.69,South,183,5.0,10.0,81,0.00,,,0.01,Wunderground v.1.15,2013-05-30 23:37:00,
2013-05-30 18:38:00,74.5,68.3,29.69,SSE,163,7.0,10.0,81,0.00,,,0.01,Wunderground v.1.15,2013-05-30 23:38:00,
2013-05-30 18:39:00,74.4,68.2,29.69,SSE,151,6.0,10.0,81,0.00,,,0.01,Wunderground v.1.15,2013-05-30 23:39:00,
2013-05-30 18:40:00,74.3,68.1,29.69,South,186,5.0,10.0,81,0.00,,,0.01,Wunderground v.1.15,2013-05-30 23:40:00,
2013-05-30 18:43:00,74.1,68.3,29.69,South,180,4.0,10.0,82,0.00,,,0.01,Wunderground v.1.15,2013-05-30 23:43:00,
2013-05-30 18:45:00,74.0,68.2,29.68,South,171,4.0,8.0,82,0.00,,,0.01,Wunderground v.1.15,2013-05-30 23:45:00,
2013-05-30 18:46:00,74.0,68.2,29.68,South,174,3.0,8.0,82,0.00,,,0.01,Wunderground v.1.15,2013-05-30 23:46:00,
2013-05-30 18:48:00,73.9,68.1,29.68,South,171,3.0,8.0,82,0.00,,,0.01,Wunderground v.1.15,2013-05-30 23:48:00,
2013-05-30 18:49:00,73.9,68.1,29.68,South,169,0.0,8.0,82,0.00,,,0.01,Wunderground v.1.15,2013-05-30 23:49:00,
2013-05-30 18:51:00,73.9,68.4,29.68,South,186,2.0,8.0,83,0.00,,,0.01,Wunderground v.1.15,2013-05-30 23:51:00,
2013-05-30 18:52:00,73.8,68.3,29.68,South,171,2.0,8.0,83,0.00,,,0.01,Wunderground v.1.15,2013-05-30 23:52:00,
2013-05-30 18:54:00,73.8,68.3,29.68,South,178,3.0,4.0,83,0.00,,,0.01,Wunderground v.1.15,2013-05-30 23:54:00,
2013-05-30 18:55:00,73.7,68.2,29.68,South,175,5.0,5.0,83,0.00,,,0.01,Wunderground v.1.15,2013-05-30 23:55:00,
2013-05-30 18:56:00,73.7,68.6,29.68,South,191,5.0,5.0,84,0.00,,,0.01,Wunderground v.1.15,2013-05-30 23:56:00,
2013-05-30 18:57:00,73.7,68.6,29.68,South,186,3.0,6.0,84,0.00,,,0.01,Wunderground v.1.15,2013-05-30 23:57:00,
2013-05-30 18:59:00,73.7,68.6,29.68,South,188,4.0,8.0,84,0.00,,,0.01,Wunderground v.1.15,2013-05-30 23:59:00,
2013-05-30 19:00:00,73.8,68.7,29.68,South,185,2.0,8.0,84,0.00,,,0.01,Wunderground v.1.15,2013-05-31 00:00:00,
2013-05-30 19:02:00,73.8,68.7,29.68,South,182,5.0,8.0,84,0.00,,,0.01,Wunderground v.1.15,2013-05-31 00:02:00,
2013-05-30 19:04:00,73.8,68.7,29.68,South,171,6.0,8.0,84,0.00,,,0.01,Wunderground v.1.15,2013-05-31 00:04:00,
2013-05-30 19:05:00,73.9,68.8,29.68,SSE,161,7.0,8.0,84,0.00,,,0.01,Wunderground v.1.15,2013-05-31 00:05:00,
2013-05-30 19:07:00,73.9,68.8,29.68,South,182,4.0,8.0,84,0.00,,,0.01,Wunderground v.1.15,2013-05-31 00:07:00,
2013-05-30 19:08:00,73.8,69.0,29.68,SW,215,6.0,8.0,85,0.00,,,0.01,Wunderground v.1.15,2013-05-31 00:08:00,
2013-05-30 19:09:00,73.8,69.0,29.68,South,175,4.0,8.0,85,0.00,,,0.01,Wunderground v.1.15,2013-05-31 00:09:00,
2013-05-30 19:11:00,73.8,69.0,29.68,South,184,3.0,8.0,85,0.00,,,0.01,Wunderground v.1.15,2013-05-31 00:11:00,
2013-05-30 19:13:00,73.9,69.1,29.67,SSW,192,4.0,8.0,85,0.00,,,0.01,Wunderground v.1.15,2013-05-31 00:13:00,
2013-05-30 19:14:00,73.9,68.8,29.68,South,186,3.0,5.0,84,0.00,,,0.01,Wunderground v.1.15,2013-05-31 00:14:00,
2013-05-30 19:17:00,74.0,69.2,29.68,SSE,165,5.0,7.0,85,0.00,,,0.01,Wunderground v.1.15,2013-05-31 00:17:00,
2013-05-30 19:18:00,74.0,69.2,29.68,South,190,6.0,8.0,85,0.00,,,0.01,Wunderground v.1.15,2013-05-31 00:18:00,
2013-05-30 19:20:00,74.0,69.2,29.68,South,191,4.0,9.0,85,0.00,,,0.01,Wunderground v.1.15,2013-05-31 00:20:00,
2013-05-30 19:22:00,73.9,69.1,29.68,SSW,192,2.0,9.0,85,0.00,,,0.01,Wunderground v.1.15,2013-05-31 00:22:00,
2013-05-30 19:23:00,73.9,69.1,29.68,SSW,192,1.0,9.0,85,0.00,,,0.01,Wunderground v.1.15,2013-05-31 00:23:00,
2013-05-30 19:24:00,73.9,69.1,29.68,South,191,2.0,4.0,85,0.00,,,0.01,Wunderground v.1.15,2013-05-31 00:24:00,
2013-05-30 19:25:00,73.9,69.4,29.68,South,187,2.0,4.0,86,0.00,,,0.01,Wunderground v.1.15,2013-05-31 00:25:00,
2013-05-30 19:26:00,73.9,69.4,29.68,South,187,2.0,4.0,86,0.00,,,0.01,Wunderground v.1.15,2013-05-31 00:26:00,
2013-05-30 19:28:00,73.9,69.4,29.68,South,190,2.0,4.0,86,0.00,,,0.01,Wunderground v.1.15,2013-05-31 00:28:00,
2013-05-30 19:29:00,73.8,69.3,29.68,SSW,196,5.0,6.0,86,0.00,,,0.01,Wunderground v.1.15,2013-05-31 00:29:00,
2013-05-30 19:31:00,73.8,69.3,29.68,SSW,203,2.0,6.0,86,0.00,,,0.01,Wunderground v.1.15,2013-05-31 00:31:00,
2013-05-30 19:34:00,73.9,69.8,29.68,South,178,3.0,5.0,87,0.00,,,0.01,Wunderground v.1.15,2013-05-31 00:34:00,
2013-05-30 19:35:00,73.8,69.7,29.68,South,184,3.0,5.0,87,0.00,,,0.01,Wunderground v.1.15,2013-05-31 00:35:00,
2013-05-30 19:36:00,73.8,69.7,29.67,South,180,2.0,5.0,87,0.00,,,0.01,Wunderground v.1.15,2013-05-31 00:36:00,
2013-05-30 19:37:00,73.8,69.7,29.67,South,180,4.0,5.0,87,0.00,,,0.01,Wunderground v.1.15,2013-05-31 00:37:00,
2013-05-30 19:39:00,73.8,69.7,29.68,South,191,4.0,5.0,87,0.00,,,0.01,Wunderground v.1.15,2013-05-31 00:39:00,
2013-05-30 19:40:00,73.8,69.7,29.68,South,190,3.0,5.0,87,0.00,,,0.01,Wunderground v.1.15,2013-05-31 00:40:00,
2013-05-30 19:41:00,73.8,69.7,29.68,South,169,2.0,5.0,87,0.00,,,0.01,Wunderground v.1.15,2013-05-31 00:41:00,
2013-05-30 19:42:00,73.8,70.0,29.67,South,178,4.0,5.0,88,0.00,,,0.01,Wunderground v.1.15,2013-05-31 00:42:00,
2013-05-30 19:43:00,73.8,70.0,29.67,SSW,205,7.0,7.0,88,0.00,,,0.01,Wunderground v.1.15,2013-05-31 00:43:00,
2013-05-30 19:44:00,73.7,69.9,29.67,South,186,5.0,7.0,88,0.00,,,0.01,Wunderground v.1.15,2013-05-31 00:44:00,
2013-05-30 19:46:00,73.7,69.9,29.67,SSW,198,5.0,7.0,88,0.00,,,0.01,Wunderground v.1.15,2013-05-31 00:46:00,
2013-05-30 19:47:00,73.7,69.9,29.68,SSE,149,7.0,7.0,88,0.00,,,0.01,Wunderground v.1.15,2013-05-31 00:47:00,
2013-05-30 19:48:00,73.7,69.9,29.68,SSE,158,6.0,7.0,88,0.00,,,0.01,Wunderground v.1.15,2013-05-31 00:48:00,
2013-05-30 19:50:00,73.6,69.8,29.68,SSW,198,6.0,7.0,88,0.00,,,0.01,Wunderground v.1.15,2013-05-31 00:50:00,
2013-05-30 19:51:00,73.6,69.8,29.68,SSE,165,3.0,7.0,88,0.00,,,0.01,Wunderground v.1.15,2013-05-31 00:51:00,
2013-05-30 19:53:00,73.5,70.1,29.68,SSE,166,1.0,7.0,89,0.00,,,0.01,Wunderground v.1.15,2013-05-31 00:53:00,
2013-05-30 19:55:00,73.5,70.1,29.69,SSE,167,3.0,4.0,89,0.00,,,0.01,Wunderground v.1.15,2013-05-31 00:55:00,
2013-05-30 19:56:00,73.5,70.1,29.69,SSE,167,2.0,4.0,89,0.00,,,0.01,Wunderground v.1.15,2013-05-31 00:56:00,
2013-05-30 19:57:00,73.4,70.0,29.69,SSE,168,2.0,4.0,89,0.00,,,0.01,Wunderground v.1.15,2013-05-31 00:57:00,
2013-05-30 19:58:00,73.4,70.0,29.69,South,171,2.0,4.0,89,0.00,,,0.01,Wunderground v.1.15,2013-05-31 00:58:00,
2013-05-30 20:01:00,73.4,70.0,29.69,South,185,6.0,6.0,89,0.00,,,0.01,Wunderground v.1.15,2013-05-31 01:01:00,
2013-05-30 20:02:00,73.3,69.9,29.69,South,178,4.0,7.0,89,0.00,,,0.01,Wunderground v.1.15,2013-05-31 01:02:00,
2013-05-30 20:03:00,73.3,69.9,29.69,South,178,3.0,7.0,89,0.00,,,0.01,Wunderground v.1.15,2013-05-31 01:03:00,
2013-05-30 20:06:00,73.3,69.9,29.69,South,187,4.0,6.0,89,0.00,,,0.01,Wunderground v.1.15,2013-05-31 01:06:00,
2013-05-30 20:08:00,73.2,70.1,29.69,South,185,5.0,6.0,90,0.00,,,0.01,Wunderground v.1.15,2013-05-31 01:08:00,
2013-05-30 20:09:00,73.2,70.1,29.69,South,169,4.0,7.0,90,0.00,,,0.01,Wunderground v.1.15,2013-05-31 01:09:00,
2013-05-30 20:12:00,73.1,70.0,29.69,South,181,4.0,7.0,90,0.00,,,0.01,Wunderground v.1.15,2013-05-31 01:12:00,
2013-05-30 20:13:00,73.1,70.0,29.69,South,174,3.0,7.0,90,0.00,,,0.01,Wunderground v.1.15,2013-05-31 01:13:00,
2013-05-30 20:14:00,73.1,70.0,29.69,South,175,2.0,4.0,90,0.00,,,0.01,Wunderground v.1.15,2013-05-31 01:14:00,
2013-05-30 20:18:00,73.0,69.9,29.69,South,184,6.0,6.0,90,0.00,,,0.01,Wunderground v.1.15,2013-05-31 01:18:00,
2013-05-30 20:19:00,73.0,69.9,29.69,South,175,4.0,6.0,90,0.00,,,0.01,Wunderground v.1.15,2013-05-31 01:19:00,
2013-05-30 20:20:00,73.0,69.9,29.69,South,180,4.0,6.0,90,0.00,,,0.01,Wunderground v.1.15,2013-05-31 01:20:00,
2013-05-30 20:24:00,72.9,70.1,29.69,SSE,167,2.0,4.0,91,0.00,,,0.01,Wunderground v.1.15,2013-05-31 01:24:00,
2013-05-30 20:25:00,72.9,70.1,29.69,South,170,2.0,4.0,91,0.00,,,0.01,Wunderground v.1.15,2013-05-31 01:25:00,
2013-05-30 20:29:00,72.8,70.0,29.70,South,188,2.0,7.0,91,0.00,,,0.01,Wunderground v.1.15,2013-05-31 01:29:00,
2013-05-30 20:30:00,72.8,70.0,29.70,South,189,1.0,7.0,91,0.00,,,0.01,Wunderground v.1.15,2013-05-31 01:30:00,
2013-05-30 20:31:00,72.8,70.0,29.70,South,178,0.0,7.0,91,0.00,,,0.01,Wunderground v.1.15,2013-05-31 01:31:00,
2013-05-30 20:34:00,72.9,70.1,29.71,South,170,3.0,4.0,91,0.00,,,0.01,Wunderground v.1.15,2013-05-31 01:34:00,
2013-05-30 20:35:00,72.9,70.1,29.71,South,171,3.0,4.0,91,0.00,,,0.01,Wunderground v.1.15,2013-05-31 01:35:00,
2013-05-30 20:36:00,72.8,70.0,29.70,South,189,4.0,5.0,91,0.00,,,0.01,Wunderground v.1.15,2013-05-31 01:36:00,
2013-05-30 20:40:00,72.9,70.1,29.70,South,189,5.0,5.0,91,0.00,,,0.01,Wunderground v.1.15,2013-05-31 01:40:00,
2013-05-30 20:41:00,72.9,70.1,29.70,South,179,5.0,5.0,91,0.00,,,0.01,Wunderground v.1.15,2013-05-31 01:41:00,
2013-05-30 20:42:00,72.9,70.1,29.70,SSW,211,4.0,5.0,91,0.00,,,0.01,Wunderground v.1.15,2013-05-31 01:42:00,
2013-05-30 20:46:00,73.0,70.2,29.70,SSE,163,4.0,6.0,91,0.00,,,0.01,Wunderground v.1.15,2013-05-31 01:46:00,
2013-05-30 20:47:00,73.0,70.2,29.71,SSE,165,5.0,8.0,91,0.00,,,0.01,Wunderground v.1.15,2013-05-31 01:47:00,
2013-05-30 20:48:00,73.0,70.2,29.71,South,179,4.0,8.0,91,0.00,,,0.01,Wunderground v.1.15,2013-05-31 01:48:00,
2013-05-30 20:51:00,73.1,70.3,29.71,South,178,3.0,8.0,91,0.00,,,0.01,Wunderground v.1.15,2013-05-31 01:51:00,
2013-05-30 20:52:00,73.1,70.3,29.71,SSE,166,3.0,8.0,91,0.00,,,0.01,Wunderground v.1.15,2013-05-31 01:52:00,
2013-05-30 20:53:00,73.1,70.3,29.71,South,170,4.0,4.0,91,0.00,,,0.01,Wunderground v.1.15,2013-05-31 01:53:00,
2013-05-30 20:56:00,73.2,70.4,29.71,South,187,3.0,5.0,91,0.00,,,0.01,Wunderground v.1.15,2013-05-31 01:56:00,
2013-05-30 20:57:00,73.2,70.4,29.71,SSE,168,5.0,5.0,91,0.00,,,0.01,Wunderground v.1.15,2013-05-31 01:57:00,
2013-05-30 20:59:00,73.2,70.4,29.71,SSW,198,3.0,6.0,91,0.00,,,0.01,Wunderground v.1.15,2013-05-31 01:59:00,
2013-05-30 21:01:00,73.3,70.5,29.71,SSE,168,5.0,6.0,91,0.00,,,0.01,Wunderground v.1.15,2013-05-31 02:01:00,
2013-05-30 21:02:00,73.3,70.5,29.71,South,188,0.0,6.0,91,0.00,,,0.01,Wunderground v.1.15,2013-05-31 02:02:00,
2013-05-30 21:04:00,73.3,70.5,29.71,South,188,5.0,5.0,91,0.00,,,0.01,Wunderground v.1.15,2013-05-31 02:04:00,
2013-05-30 21:06:00,73.3,70.5,29.71,South,186,4.0,5.0,91,0.00,,,0.01,Wunderground v.1.15,2013-05-31 02:06:00,
2013-05-30 21:07:00,73.3,70.5,29.70,SSW,192,1.0,6.0,91,0.00,,,0.01,Wunderground v.1.15,2013-05-31 02:07:00,
2013-05-30 21:09:00,73.3,70.5,29.71,South,178,3.0,7.0,91,0.00,,,0.01,Wunderground v.1.15,2013-05-31 02:09:00,
2013-05-30 21:10:00,73.3,70.5,29.71,South,175,4.0,7.0,91,0.00,,,0.01,Wunderground v.1.15,2013-05-31 02:10:00,
2013-05-30 21:11:00,73.3,70.5,29.71,South,175,3.0,7.0,91,0.00,,,0.01,Wunderground v.1.15,2013-05-31 02:11:00,
2013-05-30 21:12:00,73.3,70.5,29.71,South,179,3.0,7.0,91,0.00,,,0.01,Wunderground v.1.15,2013-05-31 02:12:00,
2013-05-30 21:14:00,73.3,70.5,29.71,SSW,196,5.0,7.0,91,0.00,,,0.01,Wunderground v.1.15,2013-05-31 02:14:00,
2013-05-30 21:15:00,73.4,70.6,29.71,South,188,3.0,7.0,91,0.00,,,0.01,Wunderground v.1.15,2013-05-31 02:15:00,
2013-05-30 21:16:00,73.4,70.6,29.71,South,188,2.0,7.0,91,0.00,,,0.01,Wunderground v.1.15,2013-05-31 02:16:00,
2013-05-30 21:17:00,73.4,70.6,29.71,SSE,160,4.0,7.0,91,0.00,,,0.01,Wunderground v.1.15,2013-05-31 02:17:00,
2013-05-30 21:19:00,73.4,70.6,29.71,South,187,2.0,7.0,91,0.00,,,0.01,Wunderground v.1.15,2013-05-31 02:19:00,
2013-05-30 21:20:00,73.4,70.6,29.71,South,183,3.0,7.0,91,0.00,,,0.01,Wunderground v.1.15,2013-05-31 02:20:00,
2013-05-30 21:21:00,73.4,70.6,29.71,SSW,196,5.0,7.0,91,0.00,,,0.01,Wunderground v.1.15,2013-05-31 02:21:00,
2013-05-30 21:22:00,73.5,70.7,29.71,South,182,4.0,7.0,91,0.00,,,0.01,Wunderground v.1.15,2013-05-31 02:22:00,
2013-05-30 21:24:00,73.5,70.7,29.71,South,182,3.0,4.0,91,0.00,,,0.01,Wunderground v.1.15,2013-05-31 02:24:00,
2013-05-30 21:25:00,73.5,70.7,29.71,South,190,3.0,6.0,91,0.00,,,0.01,Wunderground v.1.15,2013-05-31 02:25:00,
2013-05-30 21:27:00,73.5,70.7,29.71,South,169,3.0,6.0,91,0.00,,,0.01,Wunderground v.1.15,2013-05-31 02:27:00,
2013-05-30 21:29:00,73.6,70.8,29.71,SSW,192,6.0,6.0,91,0.00,,,0.01,Wunderground v.1.15,2013-05-31 02:29:00,
2013-05-30 21:31:00,73.6,70.8,29.71,SSW,194,3.0,6.0,91,0.00,,,0.01,Wunderground v.1.15,2013-05-31 02:31:00,
2013-05-30 21:33:00,73.6,70.8,29.71,SSW,194,2.0,6.0,91,0.00,,,0.01,Wunderground v.1.15,2013-05-31 02:33:00,
2013-05-30 21:34:00,73.6,70.8,29.72,SSW,198,7.0,7.0,91,0.00,,,0.01,Wunderground v.1.15,2013-05-31 02:34:00,
2013-05-30 21:36:00,73.6,70.8,29.72,South,191,3.0,7.0,91,0.00,,,0.01,Wunderground v.1.15,2013-05-31 02:36:00,
2013-05-30 21:37:00,73.6,70.8,29.72,South,191,3.0,7.0,91,0.00,,,0.01,Wunderground v.1.15,2013-05-31 02:37:00,
2013-05-30 21:38:00,73.7,70.9,29.72,South,189,3.0,7.0,91,0.00,,,0.01,Wunderground v.1.15,2013-05-31 02:38:00,
2013-05-30 21:39:00,73.7,70.9,29.72,South,171,1.0,7.0,91,0.00,,,0.01,Wunderground v.1.15,2013-05-31 02:39:00,
2013-05-30 21:42:00,73.7,70.9,29.72,SSW,192,6.0,7.0,91,0.00,,,0.01,Wunderground v.1.15,2013-05-31 02:42:00,
2013-05-30 21:43:00,73.7,70.9,29.72,South,179,4.0,7.0,91,0.00,,,0.01,Wunderground v.1.15,2013-05-31 02:43:00,
2013-05-30 21:44:00,73.7,70.6,29.72,South,179,2.0,3.0,90,0.00,,,0.01,Wunderground v.1.15,2013-05-31 02:44:00,
2013-05-30 21:45:00,73.7,70.6,29.72,South,173,3.0,5.0,90,0.00,,,0.01,Wunderground v.1.15,2013-05-31 02:45:00,
2013-05-30 21:47:00,73.7,70.6,29.72,South,178,2.0,5.0,90,0.00,,,0.01,Wunderground v.1.15,2013-05-31 02:47:00,
2013-05-30 21:48:00,73.8,70.7,29.72,South,178,3.0,5.0,90,0.00,,,0.01,Wunderground v.1.15,2013-05-31 02:48:00,
2013-05-30 21:49:00,73.8,70.7,29.72,South,178,2.0,5.0,90,0.00,,,0.01,Wunderground v.1.15,2013-05-31 02:49:00,
2013-05-30 21:50:00,73.8,70.7,29.72,South,176,2.0,5.0,90,0.00,,,0.01,Wunderground v.1.15,2013-05-31 02:50:00,
2013-05-30 21:52:00,73.8,70.7,29.72,South,178,3.0,5.0,90,0.00,,,0.01,Wunderground v.1.15,2013-05-31 02:52:00,
2013-05-30 21:54:00,73.8,70.7,29.72,South,179,3.0,4.0,90,0.00,,,0.01,Wunderground v.1.15,2013-05-31 02:54:00,
2013-05-30 21:55:00,73.8,70.7,29.72,South,182,4.0,5.0,90,0.00,,,0.01,Wunderground v.1.15,2013-05-31 02:55:00,
2013-05-30 21:57:00,73.8,70.7,29.72,SSE,168,4.0,6.0,90,0.00,,,0.01,Wunderground v.1.15,2013-05-31 02:57:00,
2013-05-30 21:59:00,73.9,70.8,29.72,South,184,4.0,6.0,90,0.00,,,0.01,Wunderground v.1.15,2013-05-31 02:59:00,
2013-05-30 22:00:00,73.9,70.8,29.72,SSE,152,3.0,6.0,90,0.00,,,0.01,Wunderground v.1.15,2013-05-31 03:00:00,
2013-05-30 22:01:00,73.9,70.8,29.72,South,188,2.0,8.0,90,0.00,,,0.01,Wunderground v.1.15,2013-05-31 03:01:00,
2013-05-30 22:02:00,73.9,70.8,29.72,South,178,3.0,8.0,90,0.00,,,0.01,Wunderground v.1.15,2013-05-31 03:02:00,
2013-05-30 22:05:00,74.0,70.9,29.72,South,175,3.0,5.0,90,0.00,,,0.01,Wunderground v.1.15,2013-05-31 03:05:00,
2013-05-30 22:07:00,74.0,70.9,29.72,South,172,4.0,6.0,90,0.00,,,0.01,Wunderground v.1.15,2013-05-31 03:07:00,
2013-05-30 22:08:00,74.0,70.9,29.72,South,173,2.0,6.0,90,0.00,,,0.01,Wunderground v.1.15,2013-05-31 03:08:00,
2013-05-30 22:10:00,74.0,70.9,29.72,South,180,4.0,6.0,90,0.00,,,0.01,Wunderground v.1.15,2013-05-31 03:10:00,
2013-05-30 22:11:00,74.0,70.9,29.72,South,188,4.0,7.0,90,0.00,,,0.01,Wunderground v.1.15,2013-05-31 03:11:00,
2013-05-30 22:13:00,74.1,71.0,29.72,SSE,167,2.0,7.0,90,0.00,,,0.01,Wunderground v.1.15,2013-05-31 03:13:00,
2013-05-30 22:15:00,74.1,71.0,29.73,SSE,167,4.0,4.0,90,0.00,,,0.01,Wunderground v.1.15,2013-05-31 03:15:00,
2013-05-30 22:17:00,74.1,71.0,29.73,South,188,0.0,6.0,90,0.00,,,0.01,Wunderground v.1.15,2013-05-31 03:17:00,
2013-05-30 22:18:00,74.1,71.0,29.73,South,188,2.0,6.0,90,0.00,,,0.01,Wunderground v.1.15,2013-05-31 03:18:00,
2013-05-30 22:21:00,74.1,71.0,29.73,South,175,2.0,6.0,90,0.00,,,0.01,Wunderground v.1.15,2013-05-31 03:21:00,
2013-05-30 22:22:00,74.1,71.0,29.73,South,191,5.0,6.0,90,0.00,,,0.01,Wunderground v.1.15,2013-05-31 03:22:00,
2013-05-30 22:23:00,74.1,71.0,29.73,South,187,3.0,3.0,90,0.00,,,0.01,Wunderground v.1.15,2013-05-31 03:23:00,
2013-05-30 22:24:00,74.2,71.1,29.73,South,169,4.0,4.0,90,0.00,,,0.01,Wunderground v.1.15,2013-05-31 03:24:00,
2013-05-30 22:26:00,74.2,71.1,29.73,South,175,2.0,5.0,90,0.00,,,0.01,Wunderground v.1.15,2013-05-31 03:26:00,
2013-05-30 22:27:00,74.2,71.1,29.73,South,176,3.0,5.0,90,0.00,,,0.01,Wunderground v.1.15,2013-05-31 03:27:00,
2013-05-30 22:28:00,74.2,71.1,29.73,South,178,2.0,5.0,90,0.00,,,0.01,Wunderground v.1.15,2013-05-31 03:28:00,
2013-05-30 22:29:00,74.2,71.1,29.73,South,170,1.0,5.0,90,0.00,,,0.01,Wunderground v.1.15,2013-05-31 03:29:00,
2013-05-30 22:32:00,74.3,71.2,29.74,South,185,3.0,7.0,90,0.00,,,0.01,Wunderground v.1.15,2013-05-31 03:32:00,
2013-05-30 22:33:00,74.3,71.2,29.73,South,176,2.0,7.0,90,0.00,,,0.01,Wunderground v.1.15,2013-05-31 03:33:00,
2013-05-30 22:34:00,74.3,71.2,29.74,South,177,1.0,3.0,90,0.00,,,0.01,Wunderground v.1.15,2013-05-31 03:34:00,
2013-05-30 22:37:00,74.4,71.3,29.74,South,181,3.0,6.0,90,0.00,,,0.01,Wunderground v.1.15,2013-05-31 03:37:00,
2013-05-30 22:38:00,74.4,71.3,29.74,SSE,167,3.0,6.0,90,0.00,,,0.01,Wunderground v.1.15,2013-05-31 03:38:00,
2013-05-30 22:39:00,74.4,71.3,29.74,South,181,4.0,6.0,90,0.00,,,0.01,Wunderground v.1.15,2013-05-31 03:39:00,
2013-05-30 22:43:00,74.5,71.4,29.74,South,190,3.0,6.0,90,0.00,,,0.01,Wunderground v.1.15,2013-05-31 03:43:00,
2013-05-30 22:44:00,74.5,71.4,29.74,SSW,199,7.0,7.0,90,0.00,,,0.01,Wunderground v.1.15,2013-05-31 03:44:00,
2013-05-30 22:45:00,74.5,71.4,29.74,SSW,195,4.0,7.0,90,0.00,,,0.01,Wunderground v.1.15,2013-05-31 03:45:00,
2013-05-30 22:48:00,74.6,71.5,29.73,South,176,4.0,7.0,90,0.00,,,0.01,Wunderground v.1.15,2013-05-31 03:48:00,
2013-05-30 22:49:00,74.6,71.5,29.73,SSE,167,4.0,7.0,90,0.00,,,0.01,Wunderground v.1.15,2013-05-31 03:49:00,
2013-05-30 22:51:00,74.6,71.5,29.74,South,169,4.0,8.0,90,0.00,,,0.01,Wunderground v.1.15,2013-05-31 03:51:00,
2013-05-30 22:53:00,74.7,71.6,29.74,South,172,5.0,6.0,90,0.00,,,0.01,Wunderground v.1.15,2013-05-31 03:53:00,
2013-05-30 22:54:00,74.7,71.6,29.74,South,190,3.0,6.0,90,0.00,,,0.01,Wunderground v.1.15,2013-05-31 03:54:00,
2013-05-30 22:55:00,74.7,71.6,29.74,SSW,194,3.0,6.0,90,0.00,,,0.01,Wunderground v.1.15,2013-05-31 03:55:00,
2013-05-30 22:57:00,74.8,71.7,29.74,SSW,198,9.0,9.0,90,0.00,,,0.01,Wunderground v.1.15,2013-05-31 03:57:00,
2013-05-30 22:59:00,74.9,71.8,29.74,South,176,3.0,9.0,90,0.00,,,0.01,Wunderground v.1.15,2013-05-31 03:59:00,
2013-05-30 23:00:00,74.9,71.8,29.74,South,178,4.0,9.0,90,0.00,,,0.01,Wunderground v.1.15,2013-05-31 04:00:00,
2013-05-30 23:01:00,74.9,71.8,29.74,South,179,3.0,9.0,90,0.00,,,0.01,Wunderground v.1.15,2013-05-31 04:01:00,
2013-05-30 23:06:00,74.9,71.8,29.74,SSE,164,6.0,8.0,90,0.00,,,0.01,Wunderground v.1.15,2013-05-31 04:06:00,
2013-05-30 23:11:00,75.0,71.9,29.74,SSW,193,6.0,8.0,90,0.00,,,0.01,Wunderground v.1.15,2013-05-31 04:11:00,
2013-05-30 23:12:00,75.0,71.9,29.74,SSE,161,7.0,8.0,90,0.00,,,0.01,Wunderground v.1.15,2013-05-31 04:12:00,
2013-05-30 23:16:00,75.1,72.0,29.74,South,172,3.0,9.0,90,0.00,,,0.01,Wunderground v.1.15,2013-05-31 04:16:00,
2013-05-30 23:17:00,75.0,71.9,29.74,SSW,199,4.0,9.0,90,0.00,,,0.01,Wunderground v.1.15,2013-05-31 04:17:00,
2013-05-30 23:18:00,75.1,72.0,29.74,South,178,3.0,9.0,90,0.00,,,0.01,Wunderground v.1.15,2013-05-31 04:18:00,
2013-05-30 23:22:00,75.1,72.0,29.73,South,184,4.0,9.0,90,0.00,,,0.01,Wunderground v.1.15,2013-05-31 04:22:00,
2013-05-30 23:23:00,75.1,72.0,29.73,South,182,5.0,9.0,90,0.00,,,0.01,Wunderground v.1.15,2013-05-31 04:23:00,
2013-05-30 23:27:00,75.2,72.1,29.73,SSE,166,4.0,7.0,90,0.00,,,0.01,Wunderground v.1.15,2013-05-31 04:27:00,
2013-05-30 23:28:00,75.2,72.1,29.73,South,182,5.0,8.0,90,0.00,,,0.01,Wunderground v.1.15,2013-05-31 04:28:00,
2013-05-30 23:32:00,75.3,71.8,29.73,South,180,2.0,9.0,89,0.00,,,0.01,Wunderground v.1.15,2013-05-31 04:32:00,
2013-05-30 23:33:00,75.3,71.8,29.73,South,180,4.0,9.0,89,0.00,,,0.01,Wunderground v.1.15,2013-05-31 04:33:00,
2013-05-30 23:34:00,75.3,71.8,29.73,South,188,6.0,6.0,89,0.00,,,0.01,Wunderground v.1.15,2013-05-31 04:34:00,
2013-05-30 23:37:00,75.3,71.8,29.73,SSW,194,5.0,7.0,89,0.00,,,0.01,Wunderground v.1.15,2013-05-31 04:37:00,
2013-05-30 23:38:00,75.3,71.8,29.73,South,175,2.0,7.0,89,0.00,,,0.01,Wunderground v.1.15,2013-05-31 04:38:00,
2013-05-30 23:39:00,75.3,71.8,29.73,South,184,4.0,7.0,89,0.00,,,0.01,Wunderground v.1.15,2013-05-31 04:39:00,
2013-05-30 23:43:00,75.3,71.8,29.73,SSW,196,4.0,7.0,89,0.00,,,0.01,Wunderground v.1.15,2013-05-31 04:43:00,
2013-05-30 23:44:00,75.3,71.8,29.73,SSE,161,5.0,7.0,89,0.00,,,0.01,Wunderground v.1.15,2013-05-31 04:44:00,
2013-05-30 23:45:00,75.3,71.8,29.73,SSW,194,4.0,7.0,89,0.00,,,0.01,Wunderground v.1.15,2013-05-31 04:45:00,
2013-05-30 23:48:00,75.4,71.9,29.73,South,186,6.0,7.0,89,0.00,,,0.01,Wunderground v.1.15,2013-05-31 04:48:00,
2013-05-30 23:49:00,75.4,71.9,29.73,South,178,5.0,7.0,89,0.00,,,0.01,Wunderground v.1.15,2013-05-31 04:49:00,
2013-05-30 23:50:00,75.4,71.9,29.73,South,182,4.0,7.0,89,0.00,,,0.01,Wunderground v.1.15,2013-05-31 04:50:00,
2013-05-30 23:53:00,75.4,71.9,29.73,South,172,4.0,5.0,89,0.00,,,0.01,Wunderground v.1.15,2013-05-31 04:53:00,
2013-05-30 23:54:00,75.4,71.9,29.73,South,190,4.0,5.0,89,0.00,,,0.01,Wunderground v.1.15,2013-05-31 04:54:00,
2013-05-30 23:55:00,75.4,71.9,29.73,South,191,5.0,6.0,89,0.00,,,0.01,Wunderground v.1.15,2013-05-31 04:55:00,
2013-05-30 23:59:00,75.5,72.0,29.73,South,182,4.0,8.0,89,0.00,,,0.01,Wunderground v.1.15,2013-05-31 04:59:00,